ALS233 SBBE-EBBR

Flight info

Callsign ALS233
Flight time N/A
Altitude 37000
Route TOGNI1 TOGNI LUVDO UZ54 SAPGO 13N040W 22N030W 31N020W IRKID OBESA AGADO LOTEE EKDAP NTS UN741 ANG UL976 OBATO UN873 VEKIN UZ173 ARVOL
Aircraft A346/H-SDE2E3FGHIJ3J4J5M1RWXY/LB1D1

Departure

Time 2026-05-05 23:03
Airport Val de Cans/Júlio Cezar Ribeiro International Airport (SBBE)

Arrival

Time N/A
Airport Brussels Airport (EBBR)
Time Latitude Longitude Altitude Speed Heading
2026-05-05 22:52 -1.38854 -48.47868 52 ft 0 kts 239°
2026-05-05 22:53 -1.38854 -48.47867 52 ft 0 kts 240°
2026-05-05 22:53 -1.38845 -48.47853 52 ft 2 kts 238°
2026-05-05 22:53 -1.38837 -48.47840 52 ft 2 kts 240°
2026-05-05 22:53 -1.38832 -48.47826 52 ft 2 kts 261°
2026-05-05 22:54 -1.38831 -48.47811 52 ft 2 kts 277°
2026-05-05 22:54 -1.38834 -48.47797 52 ft 2 kts 291°
2026-05-05 22:54 -1.38841 -48.47784 52 ft 2 kts 307°
2026-05-05 22:54 -1.38851 -48.47773 52 ft 2 kts 322°
2026-05-05 22:55 -1.38863 -48.47766 52 ft 0 kts 336°
2026-05-05 22:55 -1.38868 -48.47763 52 ft 0 kts 337°
2026-05-05 22:55 -1.38869 -48.47763 52 ft 0 kts 337°
2026-05-05 22:59 -1.38868 -48.47763 52 ft 0 kts 337°
2026-05-05 23:00 -1.38832 -48.47779 52 ft 12 kts 337°
2026-05-05 23:00 -1.38713 -48.47775 53 ft 19 kts 17°
2026-05-05 23:01 -1.38619 -48.47798 53 ft 15 kts 309°
2026-05-05 23:01 -1.38612 -48.47902 53 ft 17 kts 237°
2026-05-05 23:01 -1.38669 -48.48012 54 ft 19 kts 264°
2026-05-05 23:01 -1.38678 -48.48180 54 ft 25 kts 269°
2026-05-05 23:02 -1.38681 -48.48319 54 ft 10 kts 272°
2026-05-05 23:02 -1.38659 -48.48344 54 ft 3 kts 11°
2026-05-05 23:02 -1.38645 -48.48327 54 ft 2 kts 46°
2026-05-05 23:02 -1.38623 -48.48306 54 ft 7 kts 45°
2026-05-05 23:03 -1.38380 -48.48064 55 ft 91 kts 46°
2026-05-05 23:03 -1.37753 -48.47429 59 ft 162 kts 46°
2026-05-05 23:03 -1.36881 -48.46549 501 ft 182 kts 46°
2026-05-05 23:03 -1.36036 -48.45709 1292 ft 170 kts 46°
2026-05-05 23:04 -1.35017 -48.45139 1874 ft 177 kts
2026-05-05 23:04 -1.33775 -48.45522 2234 ft 204 kts 326°
2026-05-05 23:04 -1.32748 -48.46602 2584 ft 225 kts 315°
2026-05-05 23:04 -1.31662 -48.47839 2959 ft 245 kts 315°
2026-05-05 23:05 -1.30488 -48.49146 3366 ft 265 kts 315°
2026-05-05 23:05 -1.29205 -48.50548 3935 ft 279 kts 315°
2026-05-05 23:05 -1.27803 -48.51928 4724 ft 282 kts 329°
2026-05-05 23:05 -1.26009 -48.52552 5515 ft 274 kts
2026-05-05 23:06 -1.24179 -48.52207 6301 ft 268 kts 30°
2026-05-05 23:06 -1.22574 -48.51261 7057 ft 271 kts 36°
2026-05-05 23:06 -1.20977 -48.50281 7786 ft 276 kts 35°
2026-05-05 23:06 -1.19320 -48.49281 8516 ft 280 kts 34°
2026-05-05 23:07 -1.17623 -48.48267 9239 ft 284 kts 34°
2026-05-05 23:07 -1.15934 -48.47265 9929 ft 287 kts 34°
2026-05-05 23:07 -1.14184 -48.46228 10517 ft 295 kts 33°
2026-05-05 23:07 -1.12377 -48.45160 10833 ft 312 kts 33°
2026-05-05 23:08 -1.10458 -48.44030 11132 ft 328 kts 33°
2026-05-05 23:08 -1.08433 -48.42839 11409 ft 345 kts 33°
2026-05-05 23:08 -1.06299 -48.41582 11705 ft 361 kts 32°
2026-05-05 23:08 -1.04104 -48.40292 11987 ft 376 kts 32°
2026-05-05 23:09 -1.01793 -48.38938 12499 ft 384 kts 33°
2026-05-05 23:09 -0.99475 -48.37580 13168 ft 386 kts 32°
2026-05-05 23:09 -0.97163 -48.36223 13795 ft 389 kts 32°
2026-05-05 23:09 -0.94822 -48.34848 14387 ft 393 kts 33°
2026-05-05 23:10 -0.92463 -48.33464 14956 ft 396 kts 32°
2026-05-05 23:10 -0.90061 -48.32053 15506 ft 400 kts 32°
2026-05-05 23:10 -0.87631 -48.30626 16055 ft 403 kts 32°
2026-05-05 23:10 -0.85216 -48.29209 16591 ft 406 kts 32°
2026-05-05 23:11 -0.82769 -48.27771 17097 ft 410 kts 32°
2026-05-05 23:11 -0.80311 -48.26326 17590 ft 413 kts 32°
2026-05-05 23:11 -0.77808 -48.24856 18065 ft 417 kts 32°
2026-05-05 23:11 -0.75266 -48.23364 18540 ft 421 kts 32°
2026-05-05 23:12 -0.72738 -48.21880 18987 ft 425 kts 32°
2026-05-05 23:12 -0.70179 -48.20379 19427 ft 428 kts 32°
2026-05-05 23:12 -0.67592 -48.18858 19856 ft 432 kts 32°
2026-05-05 23:12 -0.64992 -48.17331 20267 ft 436 kts 32°
2026-05-05 23:13 -0.62388 -48.15802 20680 ft 439 kts 32°
2026-05-05 23:13 -0.59725 -48.14238 21095 ft 443 kts 32°
2026-05-05 23:13 -0.57063 -48.12675 21495 ft 446 kts 32°
2026-05-05 23:13 -0.54352 -48.11084 21896 ft 449 kts 32°
2026-05-05 23:14 -0.51648 -48.09495 22274 ft 453 kts 32°
2026-05-05 23:14 -0.48944 -48.07907 22659 ft 456 kts 32°
2026-05-05 23:14 -0.46180 -48.06284 23051 ft 460 kts 32°
2026-05-05 23:14 -0.43390 -48.04644 23451 ft 462 kts 32°
2026-05-05 23:15 -0.40596 -48.03004 23863 ft 465 kts 32°
2026-05-05 23:15 -0.37805 -48.01364 24249 ft 468 kts 32°
2026-05-05 23:15 -0.34997 -47.99715 24632 ft 471 kts 32°
2026-05-05 23:15 -0.32147 -47.98042 25039 ft 474 kts 32°
2026-05-05 23:16 -0.29271 -47.96354 25417 ft 477 kts 32°
2026-05-05 23:16 -0.26401 -47.94670 25794 ft 480 kts 33°
2026-05-05 23:16 -0.23522 -47.92976 26158 ft 483 kts 32°
2026-05-05 23:16 -0.20624 -47.91276 26493 ft 486 kts 32°
2026-05-05 23:17 -0.17698 -47.89555 26855 ft 489 kts 32°
2026-05-05 23:17 -0.14734 -47.87815 27216 ft 492 kts 32°
2026-05-05 23:17 -0.11767 -47.86073 27546 ft 495 kts 32°
2026-05-05 23:17 -0.08823 -47.84343 27912 ft 496 kts 32°
2026-05-05 23:18 -0.05834 -47.82587 28417 ft 495 kts 32°
2026-05-05 23:18 -0.02863 -47.80843 28982 ft 493 kts 32°
2026-05-05 23:18 0.00096 -47.79105 29544 ft 491 kts 32°
2026-05-05 23:18 0.03031 -47.77383 30094 ft 489 kts 32°
2026-05-05 23:19 0.05928 -47.75682 30645 ft 487 kts 32°
2026-05-05 23:19 0.08840 -47.73974 31201 ft 484 kts 32°
2026-05-05 23:19 0.11770 -47.72253 31752 ft 482 kts 32°
2026-05-05 23:19 0.14630 -47.70574 32289 ft 480 kts 32°
2026-05-05 23:20 0.17517 -47.68878 32845 ft 478 kts 32°
2026-05-05 23:20 0.20390 -47.67191 33415 ft 476 kts 32°
2026-05-05 23:20 0.23215 -47.65532 33964 ft 474 kts 32°
2026-05-05 23:20 0.26067 -47.63856 34511 ft 473 kts 32°
2026-05-05 23:21 0.28912 -47.62186 35043 ft 471 kts 32°
2026-05-05 23:21 0.31714 -47.60541 35518 ft 470 kts 32°
2026-05-05 23:21 0.34570 -47.58863 35876 ft 471 kts 32°
2026-05-05 23:21 0.37368 -47.57220 36136 ft 473 kts 32°
2026-05-05 23:22 0.40212 -47.55549 36394 ft 475 kts 32°
2026-05-05 23:22 0.43085 -47.53860 36668 ft 477 kts 32°
2026-05-05 23:22 0.45960 -47.52172 36924 ft 478 kts 32°
2026-05-05 23:22 0.48824 -47.50491 36964 ft 483 kts 32°
2026-05-05 23:23 0.54688 -47.47044 36968 ft 494 kts 32°
2026-05-05 23:23 0.60655 -47.43541 36966 ft 498 kts 32°
2026-05-05 23:24 0.66625 -47.40034 36967 ft 498 kts 32°
2026-05-05 23:24 0.72624 -47.36512 36970 ft 499 kts 32°
2026-05-05 23:25 0.78652 -47.32971 36965 ft 499 kts 32°
2026-05-05 23:25 0.84647 -47.29449 36967 ft 500 kts 32°
2026-05-05 23:26 0.90674 -47.25911 36969 ft 501 kts 32°
2026-05-05 23:26 0.96680 -47.22381 36969 ft 503 kts 32°
2026-05-05 23:27 1.02724 -47.18832 36969 ft 503 kts 32°
2026-05-05 23:27 1.08777 -47.15276 36967 ft 503 kts 32°
2026-05-05 23:28 1.14853 -47.11705 36969 ft 504 kts 32°
2026-05-05 23:28 1.20870 -47.08171 36970 ft 504 kts 32°
2026-05-05 23:29 1.26932 -47.04609 36971 ft 505 kts 32°
2026-05-05 23:29 1.33039 -47.01021 36972 ft 505 kts 32°
2026-05-05 23:30 1.39084 -46.97469 36973 ft 506 kts 32°
2026-05-05 23:30 1.45167 -46.93897 36973 ft 506 kts 32°
2026-05-05 23:31 1.51265 -46.90313 36973 ft 506 kts 32°
2026-05-05 23:31 1.57343 -46.86742 36973 ft 506 kts 32°
2026-05-05 23:32 1.63442 -46.83157 36974 ft 506 kts 32°
2026-05-05 23:32 1.69548 -46.79568 36974 ft 506 kts 32°
2026-05-05 23:33 1.75633 -46.75990 36974 ft 506 kts 32°
2026-05-05 23:33 1.81691 -46.72429 36974 ft 506 kts 32°
2026-05-05 23:34 1.87803 -46.68836 36974 ft 507 kts 32°
2026-05-05 23:34 1.93892 -46.65255 36974 ft 506 kts 32°
2026-05-05 23:35 1.99965 -46.61686 36973 ft 507 kts 32°
2026-05-05 23:35 2.06055 -46.58105 36975 ft 507 kts 32°
2026-05-05 23:36 2.12178 -46.54503 36975 ft 508 kts 32°
2026-05-05 23:36 2.18278 -46.50914 36975 ft 508 kts 32°
2026-05-05 23:37 2.24368 -46.47332 36976 ft 509 kts 32°
2026-05-05 23:37 2.30529 -46.43708 36976 ft 508 kts 32°
2026-05-05 23:38 2.36624 -46.40122 36978 ft 509 kts 32°
2026-05-05 23:38 2.42714 -46.36538 36979 ft 509 kts 32°
2026-05-05 23:39 2.48853 -46.32925 36980 ft 509 kts 32°
2026-05-05 23:39 2.54965 -46.29327 36979 ft 509 kts 32°
2026-05-05 23:40 2.61063 -46.25738 36981 ft 510 kts 32°
2026-05-05 23:40 2.67207 -46.22122 36983 ft 510 kts 31°
2026-05-05 23:41 2.73303 -46.18533 36981 ft 509 kts 32°
2026-05-05 23:41 2.79420 -46.14930 36986 ft 510 kts 31°
2026-05-05 23:42 2.85551 -46.11321 36984 ft 510 kts 32°
2026-05-05 23:42 2.91644 -46.07732 36988 ft 510 kts 31°
2026-05-05 23:43 2.97764 -46.04126 36991 ft 510 kts 31°
2026-05-05 23:43 3.03888 -46.00519 36990 ft 510 kts 31°
2026-05-05 23:44 3.10023 -45.96904 36992 ft 510 kts 31°
2026-05-05 23:44 3.16157 -45.93290 36993 ft 511 kts 31°
2026-05-05 23:45 3.22283 -45.89679 36994 ft 511 kts 31°
2026-05-05 23:45 3.28436 -45.86052 36994 ft 511 kts 31°
2026-05-05 23:46 3.34565 -45.82439 36995 ft 511 kts 31°
2026-05-05 23:46 3.40679 -45.78833 36993 ft 511 kts 31°
2026-05-05 23:47 3.46802 -45.75223 36993 ft 512 kts 31°
2026-05-05 23:47 3.52977 -45.71581 36993 ft 512 kts 31°
2026-05-05 23:48 3.59111 -45.67962 36994 ft 512 kts 31°
2026-05-05 23:48 3.65246 -45.64343 36994 ft 512 kts 31°
2026-05-05 23:49 3.71402 -45.60710 36994 ft 512 kts 31°
2026-05-05 23:49 3.77547 -45.57084 36993 ft 512 kts 31°
2026-05-05 23:50 3.83704 -45.53449 36993 ft 513 kts 31°
2026-05-05 23:50 3.89821 -45.49838 36994 ft 512 kts 31°
2026-05-05 23:51 3.96010 -45.46184 36993 ft 513 kts 31°
2026-05-05 23:51 4.02161 -45.42551 36993 ft 513 kts 31°
2026-05-05 23:52 4.08308 -45.38921 36991 ft 513 kts 31°
2026-05-05 23:52 4.14489 -45.35269 36992 ft 514 kts 31°
2026-05-05 23:53 4.20629 -45.31641 36992 ft 514 kts 31°
2026-05-05 23:53 4.26786 -45.28003 36990 ft 514 kts 31°
2026-05-05 23:54 4.32967 -45.24348 36991 ft 514 kts 31°
2026-05-05 23:54 4.39133 -45.20702 36990 ft 514 kts 31°
2026-05-05 23:55 4.45292 -45.17060 36991 ft 515 kts 31°
2026-05-05 23:55 4.51483 -45.13398 36989 ft 514 kts 31°
2026-05-05 23:56 4.57686 -45.09729 36991 ft 516 kts 31°
2026-05-05 23:56 4.63850 -45.06082 36993 ft 516 kts 31°
2026-05-05 23:57 4.70050 -45.02413 36990 ft 516 kts 31°
2026-05-05 23:57 4.76242 -44.98747 36993 ft 516 kts 31°
2026-05-05 23:58 4.82439 -44.95078 36992 ft 516 kts 31°
2026-05-05 23:58 4.88642 -44.91405 36992 ft 517 kts 31°
2026-05-05 23:59 4.94806 -44.87753 36992 ft 517 kts 31°
2026-05-05 23:59 5.01007 -44.84079 36994 ft 517 kts 31°
2026-05-06 00:00 5.07230 -44.80392 36993 ft 517 kts 31°
2026-05-06 00:00 5.13420 -44.76723 36995 ft 517 kts 31°
2026-05-06 00:01 5.19616 -44.73049 36995 ft 517 kts 31°
2026-05-06 00:01 5.25803 -44.69380 36995 ft 517 kts 31°
2026-05-06 00:02 5.32027 -44.65689 36996 ft 518 kts 31°
2026-05-06 00:02 5.38218 -44.62016 36996 ft 518 kts 31°
2026-05-06 00:03 5.44434 -44.58327 36997 ft 519 kts 31°
2026-05-06 00:03 5.50674 -44.54623 36998 ft 518 kts 31°
2026-05-06 00:04 5.56901 -44.50927 36999 ft 518 kts 31°
2026-05-06 00:04 5.63115 -44.47237 37001 ft 519 kts 31°
2026-05-06 00:05 5.72416 -44.41712 37004 ft 518 kts 31°
2026-05-06 00:06 5.78655 -44.38003 37003 ft 519 kts 31°
2026-05-06 00:06 5.84887 -44.34300 37004 ft 519 kts 31°
2026-05-06 00:07 5.91105 -44.30603 37006 ft 519 kts 31°
2026-05-06 00:07 5.97334 -44.26898 37008 ft 519 kts 31°
2026-05-06 00:08 6.03532 -44.23212 37008 ft 520 kts 31°
2026-05-06 00:08 6.09771 -44.19499 37010 ft 520 kts 31°
2026-05-06 00:09 6.16013 -44.15784 37010 ft 520 kts 31°
2026-05-06 00:09 6.22265 -44.12061 37011 ft 521 kts 31°
2026-05-06 00:10 6.28528 -44.08332 37010 ft 522 kts 31°
2026-05-06 00:10 6.34769 -44.04613 37012 ft 522 kts 31°
2026-05-06 00:11 6.41001 -44.00901 37013 ft 522 kts 31°
2026-05-06 00:11 6.47284 -43.97156 37011 ft 523 kts 31°
2026-05-06 00:12 6.53558 -43.93414 37012 ft 523 kts 31°
2026-05-06 00:12 6.59788 -43.89699 37012 ft 523 kts 31°
2026-05-06 00:13 6.66073 -43.85950 37012 ft 523 kts 31°
2026-05-06 00:13 6.72354 -43.82202 37013 ft 523 kts 31°
2026-05-06 00:14 6.78617 -43.78464 37012 ft 524 kts 31°
2026-05-06 00:14 6.84883 -43.74722 37013 ft 524 kts 31°
2026-05-06 00:15 6.91187 -43.70958 37012 ft 524 kts 31°
2026-05-06 00:15 6.97447 -43.67217 37012 ft 524 kts 31°
2026-05-06 00:16 7.03731 -43.63461 37013 ft 525 kts 31°
2026-05-06 00:16 7.10021 -43.59701 37017 ft 525 kts 30°
2026-05-06 00:17 7.16314 -43.55938 37012 ft 525 kts 31°
2026-05-06 00:17 7.22592 -43.52182 37015 ft 525 kts 31°
2026-05-06 00:18 7.28889 -43.48414 37017 ft 525 kts 30°
2026-05-06 00:18 7.35181 -43.44646 37015 ft 526 kts 30°
2026-05-06 00:19 7.41488 -43.40870 37018 ft 526 kts 30°
2026-05-06 00:19 7.47763 -43.37111 37017 ft 526 kts 30°
2026-05-06 00:20 7.54087 -43.33321 37016 ft 527 kts 30°
2026-05-06 00:20 7.60384 -43.29546 37019 ft 528 kts 30°
2026-05-06 00:21 7.66694 -43.25763 37016 ft 527 kts 30°
2026-05-06 00:21 7.73016 -43.21970 37019 ft 528 kts 30°
2026-05-06 00:22 7.79344 -43.18173 37016 ft 528 kts 30°
2026-05-06 00:22 7.85648 -43.14391 37016 ft 527 kts 30°
2026-05-06 00:23 7.91944 -43.10608 37017 ft 528 kts 30°
2026-05-06 00:23 7.98291 -43.06797 37017 ft 528 kts 30°
2026-05-06 00:24 8.04580 -43.03017 37015 ft 529 kts 30°
2026-05-06 00:24 8.10936 -42.99196 37014 ft 529 kts 30°
2026-05-06 00:25 8.17253 -42.95398 37013 ft 529 kts 30°
2026-05-06 00:25 8.23593 -42.91583 37015 ft 529 kts 30°
2026-05-06 00:26 8.29881 -42.87799 37014 ft 529 kts 30°
2026-05-06 00:26 8.36213 -42.83987 37014 ft 528 kts 30°
2026-05-06 00:27 8.42549 -42.80172 37014 ft 529 kts 30°
2026-05-06 00:27 8.48873 -42.76361 37013 ft 529 kts 30°
2026-05-06 00:28 8.55203 -42.72545 37014 ft 529 kts 30°
2026-05-06 00:28 8.61514 -42.68739 37013 ft 529 kts 30°
2026-05-06 00:29 8.67826 -42.64932 37014 ft 528 kts 30°
2026-05-06 00:29 8.74163 -42.61109 37014 ft 529 kts 30°
2026-05-06 00:30 8.80480 -42.57294 37013 ft 529 kts 30°
2026-05-06 00:30 8.86814 -42.53469 37014 ft 529 kts 30°
2026-05-06 00:31 8.93163 -42.49633 37014 ft 529 kts 30°
2026-05-06 00:31 8.99495 -42.45806 37013 ft 529 kts 30°
2026-05-06 00:32 9.05815 -42.41984 37014 ft 529 kts 30°
2026-05-06 00:32 9.12134 -42.38161 37014 ft 529 kts 30°
2026-05-06 00:33 9.18440 -42.34343 37016 ft 529 kts 30°
2026-05-06 00:33 9.24798 -42.30495 37019 ft 529 kts 30°
2026-05-06 00:34 9.31137 -42.26656 37019 ft 530 kts 30°
2026-05-06 00:34 9.37434 -42.22840 37020 ft 530 kts 30°
2026-05-06 00:35 9.43783 -42.18993 37023 ft 530 kts 30°
2026-05-06 00:35 9.50105 -42.15157 37022 ft 530 kts 30°
2026-05-06 00:36 9.56469 -42.11295 37025 ft 530 kts 29°
2026-05-06 00:36 9.62800 -42.07453 37025 ft 530 kts 29°
2026-05-06 00:37 9.69136 -42.03606 37028 ft 530 kts 29°
2026-05-06 00:37 9.75461 -41.99762 37029 ft 530 kts 29°
2026-05-06 00:38 9.81790 -41.95916 37030 ft 529 kts 29°
2026-05-06 00:38 9.88118 -41.92067 37032 ft 530 kts 29°
2026-05-06 00:39 9.94451 -41.88216 37033 ft 529 kts 29°
2026-05-06 00:39 10.00779 -41.84364 37035 ft 529 kts 29°
2026-05-06 00:40 10.07077 -41.80528 37037 ft 530 kts 29°
2026-05-06 00:40 10.13416 -41.76664 37038 ft 530 kts 29°
2026-05-06 00:41 10.19749 -41.72806 37039 ft 530 kts 29°
2026-05-06 00:41 10.26076 -41.68948 37041 ft 530 kts 28°
2026-05-06 00:42 10.32433 -41.65070 37040 ft 531 kts 28°
2026-05-06 00:42 10.38748 -41.61216 37041 ft 531 kts 28°
2026-05-06 00:43 10.45117 -41.57326 37043 ft 531 kts 28°
2026-05-06 00:43 10.51449 -41.53457 37047 ft 531 kts 28°
2026-05-06 00:44 10.57771 -41.49593 37045 ft 531 kts 28°
2026-05-06 00:44 10.64130 -41.45704 37048 ft 531 kts 28°
2026-05-06 00:45 10.70472 -41.41825 37048 ft 531 kts 28°
2026-05-06 00:45 10.76815 -41.37941 37050 ft 532 kts 28°
2026-05-06 00:46 10.83137 -41.34069 37049 ft 532 kts 28°
2026-05-06 00:46 10.89485 -41.30180 37051 ft 532 kts 28°
2026-05-06 00:47 10.95854 -41.26275 37054 ft 532 kts 28°
2026-05-06 00:47 11.02216 -41.22373 37055 ft 532 kts 28°
2026-05-06 00:48 11.08538 -41.18493 37055 ft 532 kts 28°
2026-05-06 00:48 11.14912 -41.14581 37054 ft 533 kts 28°
2026-05-06 00:49 11.21289 -41.10663 37055 ft 534 kts 28°
2026-05-06 00:49 11.27678 -41.06735 37055 ft 533 kts 28°
2026-05-06 00:50 11.34014 -41.02839 37055 ft 534 kts 28°
2026-05-06 00:50 11.40415 -40.98901 37056 ft 535 kts 28°
2026-05-06 00:51 11.46772 -40.94988 37055 ft 534 kts 28°
2026-05-06 00:51 11.53178 -40.91041 37055 ft 535 kts 28°
2026-05-06 00:52 11.59535 -40.87125 37055 ft 536 kts 28°
2026-05-06 00:52 11.65922 -40.83186 37055 ft 536 kts 28°
2026-05-06 00:53 11.72311 -40.79245 37055 ft 536 kts 28°
2026-05-06 00:53 11.78721 -40.75287 37055 ft 536 kts 27°
2026-05-06 00:54 11.85112 -40.71340 37055 ft 537 kts 28°
2026-05-06 00:54 11.91528 -40.67376 37055 ft 537 kts 28°
2026-05-06 00:55 11.97915 -40.63425 37055 ft 538 kts 28°
2026-05-06 00:55 12.04348 -40.59447 37055 ft 539 kts 28°
2026-05-06 00:56 12.10757 -40.55479 37055 ft 538 kts 27°
2026-05-06 00:56 12.17168 -40.51506 37056 ft 538 kts 28°
2026-05-06 00:57 12.23571 -40.47539 37056 ft 537 kts 27°
2026-05-06 00:57 12.29962 -40.43578 37056 ft 538 kts 27°
2026-05-06 00:58 12.36384 -40.39593 37056 ft 538 kts 27°
2026-05-06 00:58 12.42777 -40.35622 37057 ft 538 kts 27°
2026-05-06 00:59 12.49206 -40.31632 37056 ft 538 kts 27°
2026-05-06 00:59 12.55634 -40.27636 37057 ft 538 kts 27°
2026-05-06 01:00 12.62038 -40.23651 37059 ft 537 kts 27°
2026-05-06 01:00 12.68394 -40.19700 37058 ft 537 kts 27°
2026-05-06 01:01 12.74812 -40.15705 37054 ft 538 kts 27°
2026-05-06 01:01 12.81199 -40.11724 37057 ft 538 kts 27°
2026-05-06 01:02 12.87626 -40.07717 37054 ft 537 kts 27°
2026-05-06 01:02 12.93989 -40.03752 37055 ft 538 kts 27°
2026-05-06 01:03 13.00287 -39.99583 37054 ft 540 kts 32°
2026-05-06 01:03 13.06209 -39.94775 37059 ft 543 kts 37°
2026-05-06 01:04 13.12018 -39.89779 37061 ft 542 kts 37°
2026-05-06 01:04 13.17815 -39.84792 37061 ft 541 kts 37°
2026-05-06 01:05 13.23568 -39.79861 37061 ft 541 kts 37°
2026-05-06 01:05 13.29354 -39.74907 37064 ft 541 kts 36°
2026-05-06 01:06 13.35105 -39.69980 37066 ft 540 kts 36°
2026-05-06 01:06 13.40888 -39.65027 37065 ft 540 kts 37°
2026-05-06 01:07 13.47065 -39.59727 37067 ft 539 kts 36°
2026-05-06 01:07 13.52845 -39.54767 37070 ft 538 kts 36°
2026-05-06 01:08 13.58589 -39.49834 37068 ft 538 kts 36°
2026-05-06 01:08 13.64341 -39.44894 37069 ft 539 kts 36°
2026-05-06 01:09 13.70081 -39.39957 37072 ft 538 kts 36°
2026-05-06 01:09 13.75819 -39.35022 37070 ft 538 kts 36°
2026-05-06 01:10 13.81555 -39.30083 37071 ft 539 kts 36°
2026-05-06 01:10 13.87315 -39.25119 37074 ft 538 kts 36°
2026-05-06 01:11 13.93040 -39.20184 37075 ft 538 kts 36°
2026-05-06 01:11 13.98794 -39.15221 37075 ft 539 kts 36°
2026-05-06 01:12 14.04531 -39.10268 37076 ft 538 kts 36°
2026-05-06 01:12 14.10257 -39.05319 37076 ft 537 kts 36°
2026-05-06 01:13 14.15962 -39.00388 37075 ft 537 kts 36°
2026-05-06 01:13 14.21710 -38.95417 37073 ft 538 kts 36°
2026-05-06 01:14 14.30304 -38.87975 37076 ft 536 kts 36°
2026-05-06 01:14 14.36002 -38.83040 37074 ft 536 kts 36°
2026-05-06 01:15 14.41737 -38.78064 37075 ft 536 kts 36°
2026-05-06 01:15 14.47448 -38.73107 37073 ft 535 kts 36°
2026-05-06 01:16 14.53116 -38.68188 37072 ft 536 kts 36°
2026-05-06 01:16 14.58816 -38.63237 37071 ft 536 kts 36°
2026-05-06 01:17 14.64509 -38.58285 37072 ft 534 kts 36°
2026-05-06 01:17 14.70189 -38.53342 37071 ft 534 kts 36°
2026-05-06 01:18 14.75868 -38.48397 37072 ft 533 kts 36°
2026-05-06 01:18 14.81541 -38.43453 37072 ft 532 kts 36°
2026-05-06 01:19 14.87230 -38.38495 37072 ft 534 kts 36°
2026-05-06 01:19 14.92913 -38.33536 37069 ft 533 kts 36°
2026-05-06 01:20 14.98565 -38.28597 37074 ft 533 kts 36°
2026-05-06 01:20 15.04226 -38.23651 37077 ft 534 kts 36°
2026-05-06 01:21 15.09898 -38.18692 37073 ft 533 kts 36°
2026-05-06 01:21 15.15552 -38.13741 37080 ft 531 kts 36°
2026-05-06 01:22 15.21175 -38.08820 37076 ft 531 kts 36°
2026-05-06 01:22 15.26798 -38.03890 37071 ft 530 kts 36°
2026-05-06 01:23 15.32464 -37.98923 37080 ft 530 kts 36°
2026-05-06 01:23 15.38050 -37.94022 37079 ft 529 kts 36°
2026-05-06 01:24 15.43666 -37.89087 37077 ft 529 kts 36°
2026-05-06 01:24 15.49297 -37.84137 37078 ft 528 kts 36°
2026-05-06 01:25 15.54911 -37.79199 37078 ft 528 kts 36°
2026-05-06 01:25 15.60497 -37.74283 37079 ft 528 kts 36°
2026-05-06 01:26 15.66071 -37.69373 37079 ft 528 kts 36°
2026-05-06 01:26 15.71673 -37.64434 37077 ft 527 kts 36°
2026-05-06 01:27 15.77270 -37.59495 37077 ft 527 kts 36°
2026-05-06 01:27 15.82810 -37.54606 37075 ft 525 kts 36°
2026-05-06 01:28 15.88387 -37.49678 37074 ft 526 kts 36°
2026-05-06 01:28 15.93954 -37.44755 37074 ft 526 kts 36°
2026-05-06 01:29 15.99540 -37.39810 37075 ft 525 kts 36°
2026-05-06 01:29 16.05104 -37.34884 37079 ft 526 kts 36°
2026-05-06 01:30 16.10657 -37.29963 37079 ft 525 kts 37°
2026-05-06 01:30 16.16191 -37.25056 37079 ft 524 kts 37°
2026-05-06 01:31 16.21762 -37.20112 37080 ft 524 kts 37°
2026-05-06 01:31 16.27259 -37.15228 37080 ft 522 kts 36°
2026-05-06 01:32 16.32783 -37.10318 37082 ft 520 kts 37°
2026-05-06 01:32 16.38302 -37.05410 37086 ft 520 kts 37°
2026-05-06 01:33 16.43797 -37.00515 37087 ft 519 kts 37°
2026-05-06 01:33 16.49245 -36.95661 37087 ft 518 kts 37°
2026-05-06 01:34 16.54720 -36.90780 37089 ft 518 kts 37°
2026-05-06 01:34 16.60180 -36.85907 37096 ft 517 kts 37°
2026-05-06 01:35 16.65638 -36.81033 37087 ft 515 kts 37°
2026-05-06 01:35 16.71093 -36.76158 37095 ft 514 kts 37°
2026-05-06 01:36 16.76506 -36.71315 37096 ft 514 kts 37°
2026-05-06 01:36 16.81936 -36.66453 37094 ft 514 kts 37°
2026-05-06 01:37 16.87346 -36.61607 37097 ft 512 kts 37°
2026-05-06 01:37 16.92755 -36.56756 37097 ft 512 kts 37°
2026-05-06 01:38 16.98127 -36.51937 37097 ft 511 kts 37°
2026-05-06 01:38 17.03540 -36.47075 37099 ft 511 kts 37°
2026-05-06 01:39 17.08894 -36.42262 37099 ft 511 kts 37°
2026-05-06 01:39 17.14286 -36.37413 37097 ft 510 kts 37°
2026-05-06 01:40 17.19679 -36.32557 37097 ft 509 kts 37°
2026-05-06 01:40 17.25034 -36.27734 37095 ft 509 kts 37°
2026-05-06 01:41 17.35075 -36.18676 37097 ft 508 kts 37°
2026-05-06 01:42 17.40454 -36.13820 37098 ft 508 kts 37°
2026-05-06 01:42 17.45792 -36.08997 37098 ft 508 kts 37°
2026-05-06 01:43 17.51122 -36.04177 37098 ft 507 kts 37°
2026-05-06 01:43 17.56459 -35.99346 37097 ft 506 kts 37°
2026-05-06 01:44 17.61760 -35.94544 37096 ft 506 kts 37°
2026-05-06 01:44 17.67087 -35.89715 37097 ft 506 kts 37°
2026-05-06 01:45 17.72415 -35.84882 37096 ft 505 kts 37°
2026-05-06 01:45 17.77737 -35.80049 37098 ft 505 kts 38°
2026-05-06 01:46 17.83021 -35.75247 37096 ft 505 kts 38°
2026-05-06 01:46 17.88320 -35.70429 37097 ft 504 kts 38°
2026-05-06 01:47 17.93619 -35.65605 37097 ft 505 kts 38°
2026-05-06 01:47 17.98933 -35.60764 37098 ft 504 kts 38°
2026-05-06 01:48 18.04218 -35.55944 37098 ft 504 kts 38°
2026-05-06 01:48 18.09518 -35.51107 37099 ft 504 kts 38°
2026-05-06 01:49 18.14819 -35.46267 37099 ft 504 kts 38°
2026-05-06 01:49 18.20099 -35.41439 37100 ft 504 kts 38°
2026-05-06 01:50 18.25395 -35.36594 37099 ft 504 kts 38°
2026-05-06 01:50 18.30668 -35.31768 37100 ft 504 kts 38°
2026-05-06 01:51 18.35955 -35.26923 37095 ft 504 kts 38°
2026-05-06 01:51 18.41234 -35.22081 37100 ft 504 kts 38°
2026-05-06 01:52 18.46528 -35.17222 37098 ft 504 kts 38°
2026-05-06 01:52 18.51787 -35.12390 37099 ft 504 kts 38°
2026-05-06 01:53 18.57091 -35.07514 37095 ft 503 kts 38°
2026-05-06 01:53 18.62358 -35.02667 37099 ft 503 kts 38°
2026-05-06 01:54 18.67610 -34.97829 37103 ft 504 kts 38°
2026-05-06 01:54 18.72894 -34.92958 37103 ft 503 kts 38°
2026-05-06 01:55 18.78136 -34.88123 37105 ft 503 kts 38°
2026-05-06 01:55 18.83403 -34.83258 37101 ft 502 kts 38°
2026-05-06 01:56 18.88659 -34.78400 37102 ft 502 kts 38°
2026-05-06 01:56 18.93908 -34.73546 37098 ft 501 kts 38°
2026-05-06 01:57 18.99160 -34.68683 37106 ft 501 kts 38°
2026-05-06 01:57 19.04382 -34.63844 37100 ft 500 kts 38°
2026-05-06 01:58 19.09634 -34.58973 37105 ft 501 kts 38°
2026-05-06 01:58 19.14851 -34.54129 37099 ft 499 kts 38°
2026-05-06 01:59 19.20052 -34.49298 37098 ft 499 kts 38°
2026-05-06 01:59 19.25272 -34.44444 37099 ft 498 kts 38°
2026-05-06 02:00 19.30461 -34.39614 37097 ft 498 kts 38°
2026-05-06 02:00 19.35657 -34.34774 37100 ft 498 kts 38°
2026-05-06 02:01 19.40876 -34.29908 37098 ft 497 kts 38°
2026-05-06 02:01 19.46029 -34.25100 37099 ft 496 kts 38°
2026-05-06 02:02 19.51206 -34.20265 37098 ft 496 kts 38°
2026-05-06 02:02 19.56388 -34.15422 37097 ft 495 kts 39°
2026-05-06 02:03 19.61558 -34.10582 37097 ft 494 kts 38°
2026-05-06 02:03 19.66688 -34.05778 37096 ft 494 kts 38°
2026-05-06 02:04 19.71837 -34.00954 37097 ft 493 kts 38°
2026-05-06 02:04 19.76993 -33.96117 37095 ft 493 kts 39°
2026-05-06 02:05 19.82128 -33.91295 37098 ft 492 kts 39°
2026-05-06 02:05 19.87228 -33.86502 37099 ft 492 kts 39°
2026-05-06 02:06 19.92354 -33.81679 37097 ft 491 kts 39°
2026-05-06 02:06 19.97466 -33.76865 37102 ft 491 kts 39°
2026-05-06 02:07 20.02578 -33.72049 37103 ft 490 kts 39°
2026-05-06 02:07 20.07651 -33.67262 37098 ft 490 kts 39°
2026-05-06 02:08 20.12746 -33.62453 37099 ft 490 kts 39°
2026-05-06 02:08 20.17839 -33.57640 37098 ft 489 kts 39°
2026-05-06 02:09 20.22914 -33.52839 37102 ft 489 kts 39°
2026-05-06 02:09 20.27997 -33.48026 37100 ft 488 kts 39°
2026-05-06 02:10 20.33073 -33.43218 37102 ft 488 kts 39°
2026-05-06 02:10 20.38158 -33.38394 37100 ft 488 kts 39°
2026-05-06 02:11 20.43206 -33.33603 37100 ft 488 kts 39°
2026-05-06 02:11 20.48277 -33.28784 37098 ft 487 kts 39°
2026-05-06 02:12 20.53337 -33.23972 37096 ft 487 kts 39°
2026-05-06 02:12 20.58382 -33.19171 37099 ft 487 kts 39°
2026-05-06 02:13 20.63412 -33.14378 37100 ft 487 kts 39°
2026-05-06 02:13 20.68467 -33.09556 37099 ft 486 kts 39°
2026-05-06 02:14 20.73496 -33.04757 37097 ft 486 kts 39°
2026-05-06 02:14 20.78540 -32.99938 37100 ft 486 kts 39°
2026-05-06 02:15 20.83576 -32.95121 37097 ft 485 kts 39°
2026-05-06 02:15 20.88588 -32.90324 37097 ft 485 kts 39°
2026-05-06 02:16 20.93607 -32.85515 37098 ft 485 kts 39°
2026-05-06 02:16 20.98649 -32.80680 37103 ft 485 kts 39°
2026-05-06 02:17 21.03656 -32.75874 37095 ft 484 kts 39°
2026-05-06 02:17 21.08678 -32.71047 37102 ft 484 kts 39°
2026-05-06 02:18 21.13655 -32.66261 37102 ft 484 kts 39°
2026-05-06 02:18 21.18682 -32.61421 37114 ft 484 kts 39°
2026-05-06 02:19 21.23660 -32.56624 37104 ft 483 kts 38°
2026-05-06 02:19 21.28654 -32.51808 37101 ft 483 kts 39°
2026-05-06 02:20 21.36132 -32.44586 37105 ft 482 kts 38°
2026-05-06 02:21 21.41131 -32.39755 37101 ft 482 kts 39°
2026-05-06 02:21 21.46107 -32.34940 37104 ft 482 kts 39°
2026-05-06 02:22 21.51075 -32.30127 37105 ft 482 kts 39°
2026-05-06 02:22 21.56054 -32.25299 37098 ft 482 kts 38°
2026-05-06 02:23 21.61010 -32.20490 37098 ft 481 kts 39°
2026-05-06 02:23 21.65963 -32.15678 37100 ft 481 kts 39°
2026-05-06 02:24 21.70915 -32.10861 37107 ft 481 kts 38°
2026-05-06 02:24 21.75879 -32.06032 37104 ft 481 kts 38°
2026-05-06 02:25 21.80850 -32.01189 37094 ft 481 kts 39°
2026-05-06 02:25 21.85791 -31.96369 37098 ft 481 kts 38°
2026-05-06 02:26 21.90765 -31.91513 37104 ft 481 kts 38°
2026-05-06 02:26 21.95705 -31.86684 37096 ft 481 kts 38°
2026-05-06 02:27 22.00663 -31.81838 37108 ft 481 kts 38°
2026-05-06 02:27 22.05579 -31.77021 37099 ft 481 kts 38°
2026-05-06 02:28 22.10541 -31.72160 37103 ft 480 kts 38°
2026-05-06 02:28 22.15471 -31.67321 37097 ft 480 kts 38°
2026-05-06 02:29 22.20405 -31.62477 37099 ft 480 kts 38°
2026-05-06 02:29 22.25345 -31.57623 37099 ft 481 kts 38°
2026-05-06 02:30 22.30281 -31.52765 37099 ft 480 kts 38°
2026-05-06 02:30 22.35195 -31.47927 37100 ft 480 kts 37°
2026-05-06 02:31 22.40116 -31.43073 37099 ft 480 kts 37°
2026-05-06 02:31 22.45057 -31.38199 37098 ft 481 kts 37°
2026-05-06 02:32 22.49998 -31.33316 37098 ft 480 kts 38°
2026-05-06 02:32 22.54924 -31.28448 37097 ft 482 kts 37°
2026-05-06 02:33 22.59852 -31.23569 37099 ft 481 kts 38°
2026-05-06 02:33 22.61495 -31.21940 37097 ft 481 kts 37°
2026-05-06 02:34 22.69708 -31.13794 37096 ft 481 kts 37°
2026-05-06 02:34 22.74632 -31.08907 37098 ft 480 kts 37°
2026-05-06 02:35 22.79548 -31.04021 37098 ft 480 kts 37°
2026-05-06 02:35 22.84460 -30.99135 37102 ft 480 kts 37°
2026-05-06 02:36 22.89387 -30.94226 37097 ft 480 kts 37°
2026-05-06 02:36 22.94275 -30.89354 37095 ft 480 kts 37°
2026-05-06 02:37 22.99194 -30.84445 37101 ft 480 kts 37°
2026-05-06 02:37 23.04107 -30.79536 37096 ft 481 kts 37°
2026-05-06 02:38 23.09023 -30.74621 37097 ft 480 kts 37°
2026-05-06 02:38 23.13938 -30.69698 37099 ft 481 kts 37°
2026-05-06 02:39 23.18871 -30.64756 37100 ft 481 kts 37°
2026-05-06 02:39 23.23758 -30.59852 37099 ft 480 kts 37°
2026-05-06 02:40 23.28680 -30.54912 37099 ft 482 kts 37°
2026-05-06 02:40 23.33588 -30.49975 37097 ft 481 kts 37°
2026-05-06 02:41 23.38501 -30.45031 37101 ft 481 kts 37°
2026-05-06 02:41 23.43397 -30.40097 37098 ft 481 kts 37°
2026-05-06 02:42 23.48312 -30.35142 37104 ft 482 kts 37°
2026-05-06 02:42 23.53244 -30.30163 37094 ft 483 kts 37°
2026-05-06 02:43 23.58174 -30.25179 37104 ft 483 kts 37°
2026-05-06 02:43 23.63065 -30.20229 37097 ft 483 kts 37°
2026-05-06 02:44 23.67994 -30.15241 37104 ft 483 kts 37°
2026-05-06 02:44 23.72907 -30.10257 37100 ft 483 kts 38°
2026-05-06 02:45 23.77824 -30.05266 37100 ft 482 kts 38°
2026-05-06 02:45 23.82718 -30.00292 37105 ft 482 kts 38°
2026-05-06 02:46 23.87629 -29.95300 37098 ft 482 kts 38°
2026-05-06 02:46 23.92532 -29.90304 37099 ft 482 kts 37°
2026-05-06 02:47 23.97434 -29.85306 37105 ft 483 kts 38°
2026-05-06 02:47 24.02342 -29.80296 37101 ft 484 kts 37°
2026-05-06 02:48 24.07246 -29.75287 37099 ft 483 kts 38°
2026-05-06 02:48 24.12167 -29.70252 37096 ft 482 kts 37°
2026-05-06 02:49 24.17034 -29.65266 37093 ft 483 kts 38°
2026-05-06 02:49 24.21934 -29.60244 37099 ft 484 kts 37°
2026-05-06 02:50 24.26843 -29.55206 37096 ft 482 kts 37°
2026-05-06 02:50 24.31734 -29.50184 37092 ft 482 kts 37°
2026-05-06 02:51 24.36605 -29.45173 37095 ft 481 kts 37°
2026-05-06 02:51 24.41503 -29.40130 37094 ft 480 kts 37°
2026-05-06 02:52 24.46345 -29.35138 37094 ft 479 kts 37°
2026-05-06 02:52 24.51200 -29.30128 37096 ft 480 kts 37°
2026-05-06 02:53 24.56070 -29.25097 37094 ft 482 kts 37°
2026-05-06 02:53 24.60935 -29.20062 37099 ft 478 kts 37°
2026-05-06 02:54 24.65771 -29.15057 37094 ft 478 kts 38°
2026-05-06 02:54 24.70637 -29.10012 37096 ft 478 kts 37°
2026-05-06 02:55 24.75440 -29.05026 37093 ft 478 kts 37°
2026-05-06 02:55 24.80256 -29.00023 37091 ft 478 kts 37°
2026-05-06 02:56 24.85077 -28.95009 37090 ft 476 kts 37°
2026-05-06 02:56 24.89927 -28.89962 37092 ft 478 kts 37°
2026-05-06 02:57 24.94738 -28.84946 37091 ft 477 kts 37°
2026-05-06 02:57 24.99530 -28.79942 37091 ft 476 kts 37°
2026-05-06 02:58 25.04342 -28.74918 37090 ft 475 kts 37°
2026-05-06 02:58 25.09120 -28.69919 37096 ft 476 kts 37°
2026-05-06 02:59 25.13934 -28.64879 37093 ft 476 kts 37°
2026-05-06 02:59 25.18723 -28.59862 37094 ft 476 kts 37°
2026-05-06 03:00 25.23489 -28.54859 37093 ft 474 kts 37°
2026-05-06 03:00 25.28264 -28.49838 37090 ft 473 kts 36°
2026-05-06 03:01 25.33015 -28.44846 37093 ft 473 kts 37°
2026-05-06 03:01 25.37767 -28.39843 37087 ft 471 kts 37°
2026-05-06 03:02 25.42538 -28.34810 37089 ft 472 kts 37°
2026-05-06 03:02 25.47269 -28.29817 37090 ft 472 kts 36°
2026-05-06 03:03 25.51995 -28.24824 37089 ft 469 kts 37°
2026-05-06 03:03 25.56709 -28.19838 37087 ft 469 kts 36°
2026-05-06 03:04 25.61427 -28.14844 37089 ft 470 kts 36°
2026-05-06 03:04 25.66105 -28.09882 37091 ft 467 kts 37°
2026-05-06 03:05 25.70790 -28.04911 37089 ft 467 kts 37°
2026-05-06 03:05 25.75474 -27.99930 37090 ft 465 kts 36°
2026-05-06 03:06 25.80159 -27.94945 37082 ft 464 kts 37°
2026-05-06 03:06 25.84813 -27.89989 37088 ft 466 kts 37°
2026-05-06 03:07 25.89470 -27.85021 37079 ft 464 kts 36°
2026-05-06 03:07 25.94129 -27.80046 37073 ft 466 kts 37°
2026-05-06 03:08 25.98805 -27.75049 37093 ft 466 kts 37°
2026-05-06 03:08 26.03443 -27.70086 37098 ft 466 kts 37°
2026-05-06 03:09 26.08072 -27.65126 37075 ft 462 kts 37°
2026-05-06 03:09 26.12718 -27.60139 37080 ft 464 kts 37°
2026-05-06 03:10 26.17358 -27.55158 37083 ft 463 kts 37°
2026-05-06 03:10 26.21960 -27.50207 37088 ft 465 kts 37°
2026-05-06 03:11 26.26588 -27.45229 37078 ft 462 kts 37°
2026-05-06 03:11 26.31203 -27.40249 37076 ft 464 kts 37°
2026-05-06 03:12 26.35828 -27.35267 37082 ft 463 kts 37°
2026-05-06 03:12 26.40460 -27.30262 37082 ft 464 kts 38°
2026-05-06 03:13 26.45094 -27.25248 37087 ft 462 kts 37°
2026-05-06 03:13 26.49678 -27.20287 37073 ft 461 kts 38°
2026-05-06 03:14 26.54296 -27.15280 37084 ft 462 kts 38°
2026-05-06 03:14 26.58889 -27.10296 37086 ft 461 kts 38°
2026-05-06 03:15 26.63480 -27.05306 37084 ft 462 kts 38°
2026-05-06 03:15 26.68081 -27.00301 37084 ft 459 kts 38°
2026-05-06 03:16 26.72669 -26.95308 37082 ft 461 kts 38°
2026-05-06 03:16 26.77242 -26.90320 37093 ft 459 kts 38°
2026-05-06 03:17 26.81804 -26.85337 37089 ft 459 kts 38°
2026-05-06 03:17 26.86368 -26.80349 37092 ft 458 kts 38°
2026-05-06 03:18 26.90896 -26.75394 37085 ft 458 kts 38°
2026-05-06 03:18 26.95465 -26.70389 37096 ft 459 kts 39°
2026-05-06 03:19 27.00034 -26.65379 37099 ft 457 kts 39°
2026-05-06 03:19 27.04571 -26.60392 37095 ft 458 kts 39°
2026-05-06 03:20 27.11372 -26.52912 37104 ft 458 kts 39°
2026-05-06 03:20 27.15923 -26.47897 37102 ft 457 kts 39°
2026-05-06 03:21 27.20424 -26.42934 37097 ft 457 kts 39°
2026-05-06 03:21 27.24961 -26.37923 37103 ft 458 kts 39°
2026-05-06 03:22 27.29503 -26.32904 37101 ft 458 kts 39°
2026-05-06 03:22 27.34036 -26.27886 37102 ft 458 kts 40°
2026-05-06 03:23 27.38560 -26.22874 37097 ft 458 kts 40°
2026-05-06 03:23 27.43086 -26.17849 37111 ft 457 kts 40°
2026-05-06 03:24 27.47600 -26.12835 37103 ft 457 kts 40°
2026-05-06 03:24 27.52115 -26.07813 37109 ft 456 kts 40°
2026-05-06 03:25 27.56632 -26.02784 37108 ft 458 kts 40°
2026-05-06 03:25 27.61179 -25.97713 37110 ft 459 kts 40°
2026-05-06 03:26 27.65695 -25.92671 37109 ft 458 kts 40°
2026-05-06 03:26 27.70218 -25.87615 37108 ft 459 kts 40°
2026-05-06 03:27 27.74737 -25.82558 37110 ft 458 kts 40°
2026-05-06 03:27 27.79249 -25.77501 37110 ft 459 kts 40°
2026-05-06 03:28 27.81494 -25.74984 36988 ft 459 kts 40°
2026-05-06 03:28 27.83775 -25.72423 37060 ft 459 kts 40°
2026-05-06 03:28 27.88323 -25.67315 37112 ft 461 kts 41°
2026-05-06 03:29 27.92863 -25.62208 37109 ft 460 kts 40°
2026-05-06 03:29 27.97399 -25.57098 37119 ft 461 kts 41°
2026-05-06 03:30 28.01902 -25.52023 37115 ft 460 kts 41°
2026-05-06 03:30 28.06436 -25.46901 37114 ft 460 kts 41°
2026-05-06 03:31 28.10964 -25.41782 37122 ft 460 kts 41°
2026-05-06 03:31 28.15483 -25.36668 37114 ft 458 kts 41°
2026-05-06 03:32 28.19984 -25.31565 37117 ft 458 kts 41°
2026-05-06 03:32 28.24472 -25.26474 37116 ft 458 kts 41°
2026-05-06 03:33 28.28955 -25.21381 37116 ft 458 kts 41°
2026-05-06 03:33 28.33459 -25.16259 37107 ft 457 kts 41°
2026-05-06 03:34 28.37954 -25.11138 37115 ft 458 kts 41°
2026-05-06 03:34 28.42437 -25.06025 37110 ft 457 kts 41°
2026-05-06 03:35 28.46909 -25.00919 37111 ft 456 kts 41°
2026-05-06 03:35 28.51396 -24.95787 37108 ft 457 kts 41°
2026-05-06 03:36 28.55850 -24.90688 37113 ft 456 kts 41°
2026-05-06 03:36 28.60330 -24.85553 37107 ft 457 kts 41°
2026-05-06 03:37 28.64801 -24.80424 37112 ft 457 kts 41°
2026-05-06 03:37 28.69279 -24.75277 37110 ft 457 kts 41°
2026-05-06 03:38 28.73745 -24.70140 37109 ft 457 kts 41°
2026-05-06 03:38 28.78227 -24.64976 37108 ft 458 kts 41°
2026-05-06 03:39 28.82694 -24.59823 37110 ft 457 kts 41°
2026-05-06 03:39 28.87137 -24.54689 37107 ft 456 kts 41°
2026-05-06 03:40 28.91600 -24.49525 37109 ft 456 kts 41°
2026-05-06 03:40 28.96055 -24.44369 37107 ft 456 kts 41°
2026-05-06 03:41 29.00482 -24.39234 37108 ft 455 kts 41°
2026-05-06 03:41 29.04910 -24.34092 37106 ft 456 kts 42°
2026-05-06 03:42 29.09361 -24.28915 37108 ft 456 kts 42°
2026-05-06 03:42 29.13790 -24.23758 37111 ft 456 kts 42°
2026-05-06 03:43 29.18242 -24.18569 37112 ft 456 kts 42°
2026-05-06 03:43 29.22660 -24.13411 37113 ft 456 kts 42°
2026-05-06 03:44 29.27106 -24.08214 37113 ft 456 kts 42°
2026-05-06 03:44 29.31516 -24.03052 37114 ft 456 kts 42°
2026-05-06 03:45 29.35967 -23.97838 37111 ft 458 kts 42°
2026-05-06 03:45 29.40402 -23.92631 37119 ft 457 kts 42°
2026-05-06 03:46 29.44852 -23.87402 37116 ft 457 kts 42°
2026-05-06 03:46 29.49280 -23.82190 37114 ft 459 kts 42°
2026-05-06 03:47 29.53720 -23.76960 37111 ft 459 kts 42°
2026-05-06 03:47 29.58187 -23.71686 37116 ft 458 kts 42°
2026-05-06 03:48 29.62617 -23.66452 37123 ft 459 kts 42°
2026-05-06 03:48 29.67054 -23.61206 37117 ft 459 kts 42°
2026-05-06 03:49 29.71497 -23.55940 37118 ft 460 kts 42°
2026-05-06 03:49 29.75945 -23.50664 37116 ft 459 kts 42°
2026-05-06 03:50 29.80389 -23.45386 37116 ft 460 kts 42°
2026-05-06 03:50 29.84810 -23.40128 37120 ft 459 kts 42°
2026-05-06 03:51 29.89256 -23.34834 37120 ft 460 kts 43°
2026-05-06 03:51 29.93687 -23.29547 37123 ft 459 kts 43°
2026-05-06 03:52 29.98109 -23.24267 37116 ft 459 kts 43°
2026-05-06 03:52 30.02558 -23.18944 37121 ft 459 kts 43°
2026-05-06 03:53 30.06947 -23.13689 37121 ft 459 kts 43°
2026-05-06 03:53 30.11404 -23.08345 37126 ft 459 kts 43°
2026-05-06 03:54 30.15812 -23.03052 37122 ft 459 kts 43°
2026-05-06 03:54 30.20235 -22.97731 37122 ft 459 kts 43°
2026-05-06 03:55 30.24659 -22.92404 37123 ft 460 kts 43°
2026-05-06 03:55 30.29081 -22.87072 37120 ft 461 kts 43°
2026-05-06 03:56 30.33513 -22.81720 37124 ft 461 kts 43°
2026-05-06 03:56 30.37938 -22.76369 37124 ft 463 kts 43°
2026-05-06 03:57 30.42373 -22.70999 37122 ft 463 kts 43°
2026-05-06 03:57 30.46814 -22.65614 37125 ft 463 kts 43°
2026-05-06 03:58 30.51268 -22.60203 37124 ft 463 kts 43°
2026-05-06 03:58 30.55694 -22.54823 37126 ft 465 kts 43°
2026-05-06 03:59 30.60169 -22.49373 37127 ft 464 kts 43°
2026-05-06 03:59 30.64602 -22.43967 37128 ft 465 kts 43°
2026-05-06 04:00 30.69048 -22.38536 37128 ft 465 kts 43°
2026-05-06 04:00 30.73499 -22.33093 37128 ft 466 kts 43°
2026-05-06 04:01 30.77951 -22.27638 37130 ft 466 kts 43°
2026-05-06 04:01 30.82417 -22.22164 37136 ft 466 kts 43°
2026-05-06 04:02 30.86853 -22.16713 37133 ft 466 kts 43°
2026-05-06 04:02 30.91309 -22.11231 37134 ft 466 kts 43°
2026-05-06 04:03 30.95757 -22.05753 37141 ft 466 kts 43°
2026-05-06 04:03 31.00186 -22.00289 37138 ft 465 kts 43°
2026-05-06 04:04 31.04632 -21.94798 37133 ft 465 kts 43°
2026-05-06 04:04 31.09049 -21.89332 37141 ft 466 kts 43°
2026-05-06 04:05 31.13520 -21.83791 37133 ft 468 kts 43°
2026-05-06 04:05 31.17980 -21.78255 37132 ft 468 kts 43°
2026-05-06 04:06 31.22435 -21.72719 37138 ft 468 kts 43°
2026-05-06 04:06 31.26894 -21.67171 37136 ft 470 kts 43°
2026-05-06 04:07 31.31352 -21.61615 37131 ft 470 kts 43°
2026-05-06 04:07 31.35804 -21.56057 37139 ft 470 kts 43°
2026-05-06 04:08 31.40280 -21.50462 37136 ft 471 kts 43°
2026-05-06 04:08 31.44718 -21.44907 37136 ft 471 kts 43°
2026-05-06 04:09 31.49189 -21.39299 37133 ft 471 kts 43°
2026-05-06 04:09 31.53674 -21.33668 37135 ft 472 kts 44°
2026-05-06 04:10 31.58134 -21.28059 37136 ft 472 kts 44°
2026-05-06 04:10 31.62589 -21.22447 37138 ft 472 kts 44°
2026-05-06 04:11 31.67070 -21.16796 37139 ft 473 kts 44°
2026-05-06 04:11 31.71530 -21.11162 37134 ft 472 kts 44°
2026-05-06 04:12 31.76014 -21.05488 37139 ft 472 kts 44°
2026-05-06 04:12 31.80446 -20.99870 37136 ft 472 kts 44°
2026-05-06 04:13 31.84910 -20.94204 37133 ft 472 kts 44°
2026-05-06 04:13 31.89356 -20.88555 37133 ft 472 kts 44°
2026-05-06 04:14 31.93791 -20.82908 37136 ft 471 kts 44°
2026-05-06 04:14 31.98261 -20.77207 37134 ft 473 kts 44°
2026-05-06 04:15 32.02704 -20.71536 37134 ft 473 kts 44°
2026-05-06 04:15 32.07169 -20.65824 37138 ft 474 kts 44°
2026-05-06 04:16 32.11621 -20.60119 37140 ft 474 kts 44°
2026-05-06 04:16 32.16072 -20.54410 37138 ft 475 kts 44°
2026-05-06 04:17 32.20534 -20.48676 37143 ft 475 kts 44°
2026-05-06 04:17 32.25000 -20.42933 37143 ft 476 kts 44°
2026-05-06 04:18 32.29476 -20.37162 37143 ft 477 kts 44°
2026-05-06 04:18 32.33946 -20.31392 37144 ft 478 kts 44°
2026-05-06 04:19 32.38420 -20.25609 37147 ft 479 kts 44°
2026-05-06 04:19 32.42900 -20.19806 37146 ft 478 kts 44°
2026-05-06 04:20 32.47365 -20.14012 37149 ft 478 kts 44°
2026-05-06 04:20 32.51848 -20.08190 37148 ft 479 kts 44°
2026-05-06 04:21 32.56334 -20.02352 37150 ft 478 kts 44°
2026-05-06 04:21 32.60802 -19.96530 37149 ft 479 kts 44°
2026-05-06 04:22 32.65274 -19.90691 37151 ft 478 kts 44°
2026-05-06 04:23 32.71959 -19.81946 37150 ft 479 kts 44°
2026-05-06 04:23 32.76411 -19.76112 37149 ft 479 kts 44°
2026-05-06 04:24 32.80892 -19.70230 37150 ft 479 kts 44°
2026-05-06 04:24 32.85359 -19.64357 37147 ft 480 kts 44°
2026-05-06 04:25 32.89829 -19.58470 37146 ft 481 kts 44°
2026-05-06 04:25 32.94300 -19.52573 37147 ft 481 kts 44°
2026-05-06 04:26 32.98769 -19.46666 37144 ft 482 kts 44°
2026-05-06 04:26 33.03258 -19.40724 37149 ft 482 kts 44°
2026-05-06 04:27 33.07740 -19.34784 37147 ft 483 kts 45°
2026-05-06 04:27 33.12231 -19.28821 37145 ft 484 kts 45°
2026-05-06 04:28 33.16724 -19.22842 37151 ft 484 kts 45°
2026-05-06 04:28 33.21186 -19.16899 37146 ft 485 kts 45°
2026-05-06 04:29 33.25690 -19.10888 37147 ft 485 kts 45°
2026-05-06 04:29 33.30181 -19.04887 37148 ft 486 kts 45°
2026-05-06 04:30 33.34676 -18.98866 37150 ft 486 kts 45°
2026-05-06 04:30 33.39173 -18.92835 37153 ft 485 kts 45°
2026-05-06 04:31 33.43632 -18.86843 37157 ft 485 kts 45°
2026-05-06 04:31 33.48121 -18.80804 37161 ft 485 kts 45°
2026-05-06 04:32 33.52587 -18.74785 37155 ft 487 kts 45°
2026-05-06 04:32 33.57101 -18.68687 37160 ft 487 kts 45°
2026-05-06 04:33 33.61569 -18.62645 37159 ft 487 kts 45°
2026-05-06 04:33 33.66061 -18.56562 37159 ft 488 kts 45°
2026-05-06 04:34 33.70541 -18.50480 37160 ft 489 kts 45°
2026-05-06 04:34 33.75037 -18.44369 37159 ft 490 kts 45°
2026-05-06 04:35 33.79535 -18.38242 37161 ft 489 kts 45°
2026-05-06 04:35 33.84016 -18.32129 37160 ft 490 kts 45°
2026-05-06 04:36 33.88522 -18.25971 37163 ft 490 kts 46°
2026-05-06 04:36 33.93027 -18.19807 37162 ft 491 kts 46°
2026-05-06 04:37 33.97507 -18.13662 37161 ft 492 kts 46°
2026-05-06 04:37 34.02020 -18.07462 37166 ft 491 kts 46°
2026-05-06 04:38 34.06502 -18.01296 37163 ft 492 kts 46°
2026-05-06 04:38 34.11013 -17.95076 37163 ft 493 kts 46°
2026-05-06 04:39 34.15487 -17.88893 37165 ft 493 kts 46°
2026-05-06 04:39 34.19986 -17.82669 37168 ft 492 kts 46°
2026-05-06 04:40 34.24493 -17.76424 37168 ft 493 kts 46°
2026-05-06 04:40 34.28984 -17.70190 37166 ft 494 kts 45°
2026-05-06 04:41 34.33492 -17.63921 37169 ft 494 kts 46°
2026-05-06 04:41 34.37979 -17.57669 37171 ft 495 kts 46°
2026-05-06 04:42 34.42480 -17.51387 37172 ft 495 kts 45°
2026-05-06 04:42 34.46962 -17.45121 37169 ft 495 kts 45°
2026-05-06 04:43 34.51458 -17.38824 37164 ft 496 kts 45°
2026-05-06 04:43 34.55986 -17.32471 37163 ft 497 kts 46°
2026-05-06 04:44 34.60483 -17.26149 37169 ft 497 kts 46°
2026-05-06 04:44 34.64986 -17.19806 37169 ft 497 kts 46°
2026-05-06 04:45 34.69488 -17.13456 37166 ft 498 kts 46°
2026-05-06 04:45 34.73994 -17.07087 37165 ft 498 kts 46°
2026-05-06 04:46 34.78512 -17.00690 37156 ft 499 kts 46°
2026-05-06 04:46 34.83030 -16.94279 37178 ft 500 kts 46°
2026-05-06 04:47 34.87531 -16.87882 37147 ft 500 kts 46°
2026-05-06 04:47 34.92058 -16.81433 37158 ft 500 kts 46°
2026-05-06 04:48 34.96562 -16.75010 37168 ft 500 kts 46°
2026-05-06 04:48 35.01083 -16.68547 37177 ft 501 kts 46°
2026-05-06 04:49 35.05603 -16.62077 37177 ft 501 kts 46°
2026-05-06 04:49 35.10112 -16.55608 37177 ft 502 kts 46°
2026-05-06 04:50 35.14603 -16.49154 37178 ft 502 kts 46°
2026-05-06 04:50 35.19139 -16.42623 37165 ft 503 kts 46°
2026-05-06 04:51 35.23632 -16.36140 37175 ft 503 kts 46°
2026-05-06 04:51 35.28139 -16.29626 37176 ft 503 kts 47°
2026-05-06 04:52 35.32641 -16.23107 37169 ft 503 kts 47°
2026-05-06 04:52 35.37172 -16.16532 37171 ft 504 kts 47°
2026-05-06 04:53 35.41668 -16.09998 37180 ft 504 kts 47°
2026-05-06 04:53 35.46183 -16.03422 37177 ft 504 kts 47°
2026-05-06 04:54 35.50683 -15.96858 37185 ft 505 kts 47°
2026-05-06 04:54 35.55206 -15.90243 37179 ft 505 kts 47°
2026-05-06 04:55 35.59720 -15.83630 37182 ft 505 kts 47°
2026-05-06 04:55 35.64194 -15.77066 37176 ft 505 kts 47°
2026-05-06 04:56 35.68695 -15.70447 37181 ft 505 kts 47°
2026-05-06 04:56 35.73184 -15.63834 37178 ft 505 kts 47°
2026-05-06 04:57 35.77690 -15.57183 37173 ft 506 kts 47°
2026-05-06 04:57 35.82169 -15.50558 37170 ft 506 kts 47°
2026-05-06 04:58 35.86652 -15.43915 37178 ft 506 kts 47°
2026-05-06 04:58 35.91152 -15.37234 37177 ft 507 kts 47°
2026-05-06 04:59 35.95659 -15.30531 37164 ft 507 kts 48°
2026-05-06 04:59 36.00133 -15.23861 37171 ft 507 kts 48°
2026-05-06 05:00 36.04622 -15.17158 37164 ft 508 kts 48°
2026-05-06 05:00 36.09130 -15.10411 37162 ft 509 kts 48°
2026-05-06 05:01 36.13600 -15.03708 37167 ft 509 kts 48°
2026-05-06 05:01 36.18096 -14.96955 37164 ft 509 kts 48°
2026-05-06 05:02 36.22594 -14.90182 37171 ft 509 kts 48°
2026-05-06 05:02 36.27061 -14.83446 37168 ft 509 kts 48°
2026-05-06 05:03 36.31545 -14.76668 37169 ft 509 kts 48°
2026-05-06 05:03 36.36030 -14.69876 37173 ft 509 kts 48°
2026-05-06 05:04 36.41253 -14.61949 37171 ft 510 kts 48°
2026-05-06 05:04 36.44991 -14.56266 37171 ft 510 kts 48°
2026-05-06 05:05 36.49448 -14.49477 37175 ft 510 kts 48°
2026-05-06 05:05 36.53915 -14.42662 37169 ft 510 kts 48°
2026-05-06 05:06 36.58403 -14.35798 37165 ft 511 kts 48°
2026-05-06 05:06 36.62932 -14.29078 37163 ft 510 kts 45°
2026-05-06 05:07 36.67970 -14.22900 37167 ft 507 kts 39°
2026-05-06 05:07 36.74437 -14.16593 37169 ft 505 kts 33°
2026-05-06 05:08 36.79158 -14.12342 37160 ft 506 kts 33°
2026-05-06 05:08 36.84869 -14.07198 37159 ft 505 kts 33°
2026-05-06 05:09 36.90518 -14.02080 37159 ft 506 kts 33°
2026-05-06 05:09 36.96218 -13.96896 37163 ft 506 kts 33°
2026-05-06 05:10 37.01906 -13.91711 37157 ft 506 kts 33°
2026-05-06 05:10 37.07581 -13.86526 37155 ft 506 kts 33°
2026-05-06 05:11 37.13245 -13.81341 37164 ft 505 kts 33°
2026-05-06 05:11 37.19855 -13.75277 37160 ft 505 kts 33°
2026-05-06 05:12 37.24562 -13.70953 37158 ft 505 kts 33°
2026-05-06 05:12 37.30221 -13.65742 37159 ft 505 kts 33°
2026-05-06 05:13 37.36811 -13.59664 37149 ft 505 kts 33°
2026-05-06 05:13 37.41535 -13.55296 37157 ft 505 kts 33°
2026-05-06 05:14 37.48114 -13.49204 37163 ft 505 kts 33°
2026-05-06 05:14 37.52832 -13.44826 37150 ft 505 kts 33°
2026-05-06 05:15 37.59394 -13.38727 37152 ft 505 kts 33°
2026-05-06 05:15 37.64090 -13.34354 37162 ft 504 kts 34°
2026-05-06 05:16 37.70657 -13.28226 37158 ft 504 kts 34°
2026-05-06 05:16 37.75331 -13.23856 37157 ft 505 kts 34°
2026-05-06 05:17 37.80989 -13.18555 37155 ft 505 kts 34°
2026-05-06 05:17 37.86599 -13.13291 37156 ft 505 kts 34°
2026-05-06 05:18 37.93148 -13.07132 37162 ft 505 kts 34°
2026-05-06 05:18 37.98801 -13.01804 37157 ft 505 kts 34°
2026-05-06 05:19 38.04396 -12.96520 37161 ft 504 kts 34°
2026-05-06 05:19 38.10025 -12.91194 37167 ft 504 kts 34°
2026-05-06 05:20 38.15643 -12.85868 37161 ft 504 kts 33°
2026-05-06 05:20 38.21229 -12.80562 37161 ft 504 kts 33°
2026-05-06 05:21 38.26847 -12.75216 37158 ft 504 kts 33°
2026-05-06 05:21 38.32446 -12.69876 37153 ft 503 kts 33°
2026-05-06 05:22 38.37105 -12.65424 37155 ft 503 kts 34°
2026-05-06 05:22 38.43625 -12.59183 37156 ft 503 kts 33°
2026-05-06 05:23 38.48243 -12.54754 37155 ft 502 kts 33°
2026-05-06 05:23 38.57563 -12.45792 37149 ft 502 kts 33°
2026-05-06 05:24 38.63090 -12.40462 37149 ft 502 kts 33°
2026-05-06 05:24 38.68647 -12.35097 37147 ft 502 kts 33°
2026-05-06 05:25 38.74219 -12.29703 37146 ft 502 kts 34°
2026-05-06 05:25 38.79801 -12.24290 37143 ft 502 kts 34°
2026-05-06 05:26 38.85355 -12.18892 37144 ft 502 kts 34°
2026-05-06 05:26 38.89948 -12.14420 37139 ft 502 kts 34°
2026-05-06 05:27 38.95522 -12.08982 37139 ft 502 kts 34°
2026-05-06 05:27 39.01076 -12.03554 37134 ft 502 kts 34°
2026-05-06 05:28 39.07529 -11.97234 37134 ft 501 kts 34°
2026-05-06 05:28 39.12158 -11.92690 37140 ft 502 kts 34°
2026-05-06 05:29 39.18609 -11.86345 37137 ft 502 kts 34°
2026-05-06 05:29 39.24134 -11.80898 37134 ft 501 kts 34°
2026-05-06 05:30 39.29658 -11.75443 37135 ft 501 kts 34°
2026-05-06 05:30 39.34288 -11.70861 37130 ft 502 kts 34°
2026-05-06 05:31 39.40718 -11.64485 37131 ft 501 kts 34°
2026-05-06 05:31 39.46238 -11.59001 37131 ft 501 kts 34°
2026-05-06 05:32 39.50844 -11.54415 37130 ft 501 kts 34°
2026-05-06 05:32 39.57252 -11.48021 37122 ft 502 kts 34°
2026-05-06 05:33 39.62781 -11.42493 37130 ft 501 kts 34°
2026-05-06 05:33 39.68255 -11.37008 37131 ft 501 kts 34°
2026-05-06 05:34 39.73763 -11.31478 37125 ft 501 kts 34°
2026-05-06 05:34 39.79294 -11.25913 37125 ft 501 kts 34°
2026-05-06 05:35 39.84771 -11.20391 37123 ft 501 kts 34°
2026-05-06 05:35 39.90262 -11.14842 37121 ft 501 kts 34°
2026-05-06 05:36 39.94873 -11.10175 37120 ft 501 kts 34°
2026-05-06 05:36 40.01246 -11.03710 37119 ft 500 kts 34°
2026-05-06 05:37 40.06748 -10.98117 37114 ft 500 kts 34°
2026-05-06 05:37 40.12199 -10.92562 37114 ft 500 kts 34°
2026-05-06 05:38 40.16746 -10.87921 37114 ft 500 kts 34°
2026-05-06 05:38 40.23134 -10.81387 37114 ft 500 kts 34°
2026-05-06 05:39 40.28610 -10.75773 37108 ft 500 kts 34°
2026-05-06 05:39 40.33198 -10.71059 37105 ft 500 kts 34°
2026-05-06 05:40 40.39559 -10.64511 37106 ft 500 kts 34°
2026-05-06 05:40 40.45017 -10.58878 37105 ft 500 kts 34°
2026-05-06 05:41 40.50475 -10.53236 37102 ft 500 kts 34°
2026-05-06 05:41 40.55022 -10.48523 37104 ft 500 kts 34°
2026-05-06 05:42 40.61367 -10.41936 37102 ft 500 kts 34°
2026-05-06 05:42 40.66798 -10.36286 37103 ft 500 kts 34°
2026-05-06 05:43 40.72237 -10.30613 37100 ft 500 kts 35°
2026-05-06 05:43 40.77693 -10.24911 37098 ft 500 kts 35°
2026-05-06 05:44 40.82216 -10.20174 37097 ft 500 kts 35°
2026-05-06 05:44 40.88559 -10.13517 37093 ft 499 kts 35°
2026-05-06 05:45 40.93962 -10.07835 37090 ft 499 kts 35°
2026-05-06 05:45 40.99404 -10.02098 37094 ft 499 kts 35°
2026-05-06 05:46 41.04803 -9.96394 37093 ft 499 kts 35°
2026-05-06 05:46 41.10210 -9.90669 37090 ft 499 kts 35°
2026-05-06 05:47 41.15620 -9.84929 37091 ft 498 kts 35°
2026-05-06 05:47 41.21010 -9.79196 37090 ft 498 kts 35°
2026-05-06 05:48 41.26419 -9.73432 37085 ft 498 kts 35°
2026-05-06 05:48 41.31801 -9.67684 37084 ft 498 kts 35°
2026-05-06 05:49 41.37179 -9.61929 37085 ft 497 kts 35°
2026-05-06 05:49 41.42585 -9.56129 37083 ft 497 kts 35°
2026-05-06 05:50 41.47930 -9.50383 37085 ft 497 kts 35°
2026-05-06 05:50 41.53288 -9.44612 37078 ft 497 kts 35°
2026-05-06 05:51 41.58659 -9.38810 37080 ft 497 kts 35°
2026-05-06 05:51 41.64046 -9.32982 37073 ft 497 kts 36°
2026-05-06 05:52 41.69398 -9.27178 37077 ft 497 kts 36°
2026-05-06 05:52 41.74728 -9.21384 37077 ft 497 kts 36°
2026-05-06 05:53 41.80103 -9.15529 37076 ft 497 kts 36°
2026-05-06 05:53 41.85428 -9.09715 37075 ft 496 kts 36°
2026-05-06 05:54 41.90753 -9.03889 37075 ft 496 kts 36°
2026-05-06 05:54 41.95217 -8.98993 37072 ft 496 kts 36°
2026-05-06 05:55 42.01460 -8.92134 37074 ft 496 kts 36°
2026-05-06 05:55 42.06772 -8.86281 37078 ft 496 kts 36°
2026-05-06 05:56 42.12120 -8.80376 37082 ft 495 kts 36°
2026-05-06 05:56 42.17441 -8.74488 37082 ft 495 kts 36°
2026-05-06 05:57 42.22748 -8.68603 37084 ft 495 kts 36°
2026-05-06 05:57 42.27169 -8.63690 37085 ft 495 kts 36°
2026-05-06 05:58 42.33358 -8.56796 37086 ft 494 kts 36°
2026-05-06 05:58 42.38673 -8.50862 37080 ft 494 kts 36°
2026-05-06 05:59 42.43079 -8.45932 37075 ft 494 kts 36°
2026-05-06 05:59 42.49221 -8.39044 37062 ft 494 kts 36°
2026-05-06 06:00 42.54500 -8.33110 37057 ft 493 kts 36°
2026-05-06 06:00 42.59815 -8.27121 37061 ft 493 kts 36°
2026-05-06 06:01 42.65044 -8.21217 37063 ft 493 kts 36°
2026-05-06 06:01 42.70318 -8.15247 37068 ft 492 kts 36°
2026-05-06 06:02 42.75572 -8.09286 37070 ft 492 kts 36°
2026-05-06 06:02 42.79940 -8.04322 37064 ft 491 kts 36°
2026-05-06 06:03 42.86034 -7.97379 37058 ft 491 kts 36°
2026-05-06 06:03 42.91262 -7.91406 37059 ft 491 kts 36°
2026-05-06 06:04 42.96506 -7.85402 37053 ft 491 kts 36°
2026-05-06 06:04 43.01698 -7.79443 37054 ft 490 kts 36°
2026-05-06 06:05 43.06932 -7.73423 37054 ft 491 kts 36°
2026-05-06 06:05 43.12123 -7.67441 37056 ft 491 kts 36°
2026-05-06 06:06 43.17358 -7.61391 37059 ft 491 kts 36°
2026-05-06 06:06 43.22557 -7.55369 37058 ft 492 kts 36°
2026-05-06 06:07 43.27761 -7.49329 37059 ft 492 kts 36°
2026-05-06 06:07 43.32984 -7.43252 37057 ft 492 kts 36°
2026-05-06 06:08 43.38168 -7.37207 37059 ft 492 kts 36°
2026-05-06 06:08 43.43383 -7.31111 37060 ft 493 kts 37°
2026-05-06 06:09 43.48615 -7.24980 37068 ft 493 kts 37°
2026-05-06 06:09 43.53837 -7.18849 37071 ft 494 kts 37°
2026-05-06 06:10 43.59014 -7.12753 37072 ft 494 kts 37°
2026-05-06 06:10 43.64221 -7.06609 37072 ft 494 kts 37°
2026-05-06 06:11 43.69428 -7.00451 37072 ft 494 kts 37°
2026-05-06 06:11 43.74668 -6.94237 37068 ft 494 kts 37°
2026-05-06 06:12 43.79865 -6.88061 37068 ft 495 kts 37°
2026-05-06 06:12 43.85059 -6.81873 37075 ft 495 kts 37°
2026-05-06 06:13 43.90291 -6.75625 37070 ft 495 kts 37°
2026-05-06 06:13 43.95468 -6.69430 37062 ft 496 kts 37°
2026-05-06 06:14 44.00686 -6.63169 37076 ft 496 kts 37°
2026-05-06 06:14 44.05907 -6.56889 37070 ft 497 kts 37°
2026-05-06 06:15 44.11107 -6.50620 37071 ft 497 kts 37°
2026-05-06 06:15 44.16314 -6.44326 37070 ft 497 kts 37°
2026-05-06 06:16 44.21507 -6.38037 37077 ft 498 kts 37°
2026-05-06 06:16 44.26728 -6.31695 37073 ft 498 kts 38°
2026-05-06 06:17 44.31952 -6.25337 37073 ft 498 kts 38°
2026-05-06 06:17 44.37129 -6.19019 37065 ft 499 kts 38°
2026-05-06 06:18 44.42344 -6.12640 37066 ft 499 kts 38°
2026-05-06 06:18 44.47553 -6.06254 37073 ft 500 kts 38°
2026-05-06 06:19 44.52758 -5.99859 37065 ft 500 kts 38°
2026-05-06 06:19 44.57975 -5.93432 37069 ft 500 kts 38°
2026-05-06 06:20 44.63198 -5.86979 37068 ft 501 kts 38°
2026-05-06 06:20 44.68153 -5.80108 37064 ft 504 kts 44°
2026-05-06 06:21 44.72831 -5.72789 37065 ft 505 kts 45°
2026-05-06 06:21 44.77463 -5.65456 37066 ft 505 kts 45°
2026-05-06 06:22 44.81350 -5.59301 37074 ft 505 kts 45°
2026-05-06 06:22 44.86786 -5.50690 37067 ft 505 kts 45°
2026-05-06 06:23 44.90645 -5.44567 37064 ft 506 kts 45°
2026-05-06 06:23 44.96077 -5.35925 37068 ft 506 kts 45°
2026-05-06 06:24 45.00764 -5.28449 37071 ft 506 kts 45°
2026-05-06 06:24 45.05412 -5.21014 37068 ft 507 kts 45°
2026-05-06 06:25 45.10022 -5.13620 37069 ft 507 kts 45°
2026-05-06 06:26 45.17013 -5.02370 37063 ft 507 kts 46°
2026-05-06 06:26 45.21653 -4.94878 37068 ft 508 kts 46°
2026-05-06 06:27 45.26284 -4.87383 37185 ft 508 kts 46°
2026-05-06 06:27 45.30927 -4.79847 37092 ft 507 kts 46°
2026-05-06 06:28 45.34783 -4.73571 37074 ft 507 kts 46°
2026-05-06 06:28 45.40168 -4.64783 37067 ft 507 kts 45°
2026-05-06 06:29 45.44790 -4.57219 37063 ft 508 kts 46°
2026-05-06 06:29 45.49412 -4.49634 37064 ft 508 kts 46°
2026-05-06 06:30 45.54017 -4.42058 37063 ft 508 kts 46°
2026-05-06 06:30 45.58624 -4.34457 37056 ft 508 kts 46°
2026-05-06 06:31 45.63243 -4.26814 37057 ft 509 kts 46°
2026-05-06 06:31 45.67835 -4.19195 37057 ft 509 kts 46°
2026-05-06 06:32 45.72432 -4.11548 37055 ft 509 kts 46°
2026-05-06 06:32 45.77038 -4.03863 37052 ft 509 kts 46°
2026-05-06 06:33 45.81636 -3.96172 37051 ft 509 kts 46°
2026-05-06 06:33 45.86246 -3.88439 37045 ft 510 kts 46°
2026-05-06 06:34 45.90833 -3.80725 37047 ft 510 kts 46°
2026-05-06 06:34 45.95430 -3.72970 37045 ft 510 kts 46°
2026-05-06 06:35 45.99984 -3.65265 37044 ft 511 kts 46°
2026-05-06 06:35 46.04576 -3.57476 37041 ft 511 kts 46°
2026-05-06 06:36 46.09174 -3.49655 37042 ft 511 kts 46°
2026-05-06 06:36 46.13769 -3.41816 37038 ft 512 kts 46°
2026-05-06 06:37 46.18325 -3.34021 37036 ft 512 kts 47°
2026-05-06 06:37 46.22905 -3.26165 37037 ft 513 kts 47°
2026-05-06 06:38 46.27485 -3.18283 37035 ft 513 kts 47°
2026-05-06 06:38 46.32049 -3.10409 37033 ft 513 kts 47°
2026-05-06 06:39 46.36627 -3.02488 37033 ft 514 kts 47°
2026-05-06 06:39 46.41177 -2.94595 37031 ft 514 kts 47°
2026-05-06 06:40 46.45772 -2.86596 37034 ft 514 kts 47°
2026-05-06 06:40 46.50335 -2.78634 37032 ft 515 kts 47°
2026-05-06 06:41 46.54884 -2.70672 37030 ft 515 kts 47°
2026-05-06 06:41 46.59435 -2.62683 37032 ft 515 kts 47°
2026-05-06 06:42 46.63988 -2.54666 37030 ft 515 kts 47°
2026-05-06 06:42 46.68521 -2.46663 37030 ft 516 kts 48°
2026-05-06 06:43 46.73082 -2.38586 37031 ft 516 kts 48°
2026-05-06 06:43 46.76872 -2.31859 37027 ft 516 kts 49°
2026-05-06 06:44 46.82157 -2.22447 37034 ft 517 kts 49°
2026-05-06 06:44 46.86682 -2.14363 37029 ft 517 kts 49°
2026-05-06 06:45 46.91222 -2.06230 37032 ft 517 kts 49°
2026-05-06 06:45 46.95755 -1.98086 37032 ft 517 kts 49°
2026-05-06 06:46 47.00292 -1.89911 37032 ft 517 kts 49°
2026-05-06 06:46 47.04794 -1.81774 37029 ft 517 kts 49°
2026-05-06 06:47 47.09313 -1.73589 37026 ft 518 kts 49°
2026-05-06 06:47 47.13850 -1.65340 37028 ft 518 kts 49°
2026-05-06 06:48 47.18251 -1.56984 37025 ft 519 kts 51°
2026-05-06 06:48 47.22522 -1.48407 37023 ft 520 kts 52°
2026-05-06 06:49 47.26752 -1.39870 37023 ft 520 kts 52°
2026-05-06 06:49 47.31019 -1.31262 37017 ft 520 kts 52°
2026-05-06 06:50 47.35269 -1.22673 37017 ft 521 kts 52°
2026-05-06 06:50 47.39524 -1.14049 37015 ft 521 kts 52°
2026-05-06 06:51 47.43755 -1.05451 37014 ft 521 kts 52°
2026-05-06 06:51 47.48000 -0.96793 37014 ft 521 kts 52°
2026-05-06 06:52 47.52526 -0.88492 37018 ft 520 kts 46°
2026-05-06 06:52 47.57663 -0.80913 37015 ft 518 kts 39°
2026-05-06 06:53 47.63228 -0.74252 37017 ft 517 kts 34°
2026-05-06 06:53 47.68969 -0.67844 37018 ft 517 kts 34°
2026-05-06 06:54 47.74694 -0.61429 37019 ft 518 kts 34°
2026-05-06 06:54 47.80436 -0.54942 37020 ft 518 kts 34°
2026-05-06 06:55 47.86125 -0.48484 37017 ft 519 kts 34°
2026-05-06 06:55 47.91842 -0.41976 37018 ft 519 kts 34°
2026-05-06 06:56 47.97561 -0.35449 37020 ft 519 kts 34°
2026-05-06 06:56 48.03292 -0.28887 37020 ft 520 kts 35°
2026-05-06 06:57 48.08853 -0.21961 37018 ft 522 kts 40°
2026-05-06 06:57 48.14140 -0.14531 37021 ft 523 kts 41°
2026-05-06 06:58 48.19384 -0.07056 37020 ft 523 kts 41°
2026-05-06 06:58 48.24688 0.00497 37021 ft 524 kts 41°
2026-05-06 06:59 48.29926 0.07961 37018 ft 524 kts 41°
2026-05-06 06:59 48.35229 0.15534 37017 ft 524 kts 41°
2026-05-06 07:00 48.40476 0.23049 37016 ft 525 kts 41°
2026-05-06 07:00 48.45752 0.30625 37013 ft 525 kts 41°
2026-05-06 07:01 48.50991 0.38174 37013 ft 526 kts 41°
2026-05-06 07:01 48.56288 0.45827 37010 ft 526 kts 41°
2026-05-06 07:02 48.61531 0.53427 37006 ft 527 kts 41°
2026-05-06 07:02 48.66821 0.61118 37007 ft 527 kts 42°
2026-05-06 07:03 48.72075 0.68779 37002 ft 527 kts 43°
2026-05-06 07:03 48.77378 0.76537 37001 ft 528 kts 43°
2026-05-06 07:04 48.82633 0.84247 37005 ft 528 kts 43°
2026-05-06 07:04 48.85257 0.88107 36857 ft 528 kts 43°
2026-05-06 07:04 48.87911 0.92015 36940 ft 529 kts 43°
2026-05-06 07:05 48.93161 0.99769 36990 ft 530 kts 43°
2026-05-06 07:05 48.98455 1.07610 36993 ft 530 kts 43°
2026-05-06 07:06 49.03730 1.15447 37005 ft 530 kts 43°
2026-05-06 07:06 49.08973 1.23259 36999 ft 530 kts 43°
2026-05-06 07:07 49.13390 1.29862 36998 ft 530 kts 43°
2026-05-06 07:07 49.19502 1.39026 36991 ft 530 kts 43°
2026-05-06 07:08 49.24747 1.46916 36996 ft 531 kts 43°
2026-05-06 07:08 49.30008 1.54855 36988 ft 531 kts 43°
2026-05-06 07:09 49.35280 1.62837 36990 ft 531 kts 43°
2026-05-06 07:09 49.40535 1.70817 36990 ft 531 kts 44°
2026-05-06 07:10 49.45768 1.78790 36986 ft 532 kts 44°
2026-05-06 07:10 49.51028 1.86833 36986 ft 531 kts 44°
2026-05-06 07:11 49.56227 1.94804 36983 ft 532 kts 44°
2026-05-06 07:11 49.61463 2.02859 36980 ft 532 kts 44°
2026-05-06 07:12 49.66658 2.10875 36978 ft 533 kts 44°
2026-05-06 07:12 49.71918 2.19020 36968 ft 533 kts 44°
2026-05-06 07:13 49.77121 2.27101 36961 ft 533 kts 44°
2026-05-06 07:13 49.82361 2.35266 36962 ft 533 kts 44°
2026-05-06 07:14 49.87561 2.43394 36957 ft 534 kts 44°
2026-05-06 07:14 49.92785 2.51588 36957 ft 534 kts 44°
2026-05-06 07:15 49.97953 2.59722 36950 ft 534 kts 44°
2026-05-06 07:15 50.03167 2.67950 36945 ft 534 kts 44°
2026-05-06 07:16 50.08389 2.76217 36945 ft 535 kts 45°
2026-05-06 07:16 50.13588 2.84481 36942 ft 535 kts 45°
2026-05-06 07:17 50.17950 2.91433 36941 ft 535 kts 45°
2026-05-06 07:17 50.24038 3.01167 36937 ft 536 kts 45°
2026-05-06 07:18 50.29233 3.09502 36937 ft 535 kts 44°
2026-05-06 07:18 50.34422 3.17848 36933 ft 537 kts 44°
2026-05-06 07:19 50.39596 3.26204 36931 ft 537 kts 44°
2026-05-06 07:19 50.44848 3.34522 36930 ft 537 kts 43°
2026-05-06 07:20 50.50132 3.42742 36927 ft 537 kts 43°
2026-05-06 07:20 50.55554 3.50744 36927 ft 536 kts 36°
2026-05-06 07:21 50.61594 3.57580 36929 ft 536 kts 32°
2026-05-06 07:21 50.67745 3.64213 36926 ft 536 kts 32°
2026-05-06 07:22 50.73879 3.70940 36922 ft 537 kts 33°
2026-05-06 07:22 50.79952 3.77697 36922 ft 537 kts 33°
2026-05-06 07:23 50.86057 3.84516 36918 ft 537 kts 33°
2026-05-06 07:23 50.88930 3.88250 36899 ft 540 kts 46°
2026-05-06 07:23 50.91135 3.92986 36916 ft 541 kts 61°
2026-05-06 07:24 50.93528 4.04137 36910 ft 532 kts 91°
2026-05-06 07:24 50.93137 4.09848 36911 ft 520 kts 110°
2026-05-06 07:24 50.91669 4.15003 36913 ft 505 kts 130°
2026-05-06 07:24 50.89337 4.18981 36917 ft 489 kts 149°
2026-05-06 07:25 50.87459 4.20790 36913 ft 477 kts 162°
2026-05-06 07:25 50.83258 4.22336 36923 ft 462 kts 179°
2026-05-06 07:25 50.81157 4.22814 36916 ft 466 kts 173°
2026-05-06 07:25 50.77044 4.25139 36910 ft 480 kts 158°
2026-05-06 07:26 50.74180 4.27991 36918 ft 485 kts 152°
2026-05-06 07:26 50.71287 4.30527 36902 ft 475 kts 163°
2026-05-06 07:26 50.68160 4.32066 36911 ft 465 kts 174°
2026-05-06 07:26 50.64995 4.32532 36908 ft 455 kts 186°
2026-05-06 07:27 50.61911 4.31946 36903 ft 447 kts 197°
2026-05-06 07:27 50.58994 4.30335 36896 ft 442 kts 209°
2026-05-06 07:27 50.57221 4.28728 36894 ft 439 kts 216°
2026-05-06 07:27 50.54257 4.24428 36888 ft 437 kts 232°
2026-05-06 07:28 50.52642 4.20418 36899 ft 438 kts 243°
2026-05-06 07:28 50.51617 4.15874 36893 ft 442 kts 254°
2026-05-06 07:28 50.51559 4.06232 36888 ft 454 kts 278°
2026-05-06 07:29 50.52529 4.01518 36897 ft 463 kts 289°
2026-05-06 07:29 50.54163 3.97062 36901 ft 472 kts 301°
2026-05-06 07:29 50.56374 3.93179 36901 ft 482 kts 312°
2026-05-06 07:29 50.59050 3.90045 36904 ft 492 kts 323°
2026-05-06 07:30 50.62170 3.87711 36904 ft 502 kts 335°
2026-05-06 07:30 50.65554 3.86348 36910 ft 511 kts 346°
2026-05-06 07:30 50.69117 3.86007 36911 ft 520 kts 358°
2026-05-06 07:30 50.72756 3.86744 36911 ft 527 kts
2026-05-06 07:31 50.76251 3.88534 36912 ft 533 kts 21°
2026-05-06 07:31 50.79516 3.91335 36919 ft 537 kts 32°
2026-05-06 07:31 50.82417 3.95042 36917 ft 540 kts 43°
2026-05-06 07:31 50.84860 3.99542 36924 ft 541 kts 55°
2026-05-06 07:32 50.86744 4.04658 36923 ft 540 kts 66°
2026-05-06 07:32 50.88013 4.10245 36915 ft 538 kts 78°
2026-05-06 07:32 50.88612 4.16051 36926 ft 533 kts 89°
2026-05-06 07:32 50.88631 4.19935 36922 ft 529 kts 97°
2026-05-06 07:33 50.87809 4.27490 36930 ft 523 kts 109°
2026-05-06 07:33 50.87156 4.33083 36912 ft 529 kts 99°
2026-05-06 07:33 50.87143 4.38921 36913 ft 536 kts 88°
2026-05-06 07:33 50.87801 4.44714 36917 ft 541 kts 76°
2026-05-06 07:34 50.90611 4.55816 36918 ft 543 kts 69°
2026-05-06 07:34 50.93256 4.67025 36913 ft 543 kts 72°
2026-05-06 07:35 50.95847 4.78258 36911 ft 544 kts 72°
2026-05-06 07:35 50.98438 4.89464 36910 ft 546 kts 72°
2026-05-06 07:36 51.01057 5.00839 36914 ft 546 kts 72°
2026-05-06 07:36 51.03672 5.12122 36913 ft 546 kts 72°
2026-05-06 07:37 51.05865 5.21580 36903 ft 547 kts 72°
2026-05-06 07:37 51.08927 5.34845 36904 ft 548 kts 72°
2026-05-06 07:38 51.11543 5.46194 36904 ft 548 kts 72°
2026-05-06 07:38 51.14166 5.57549 36890 ft 549 kts 71°
2026-05-06 07:39 51.16788 5.68951 36917 ft 548 kts 72°
2026-05-06 07:39 51.19416 5.80253 36910 ft 548 kts 72°
2026-05-06 07:40 51.22049 5.91634 36902 ft 549 kts 72°
2026-05-06 07:40 51.24692 6.03059 36894 ft 548 kts 72°
2026-05-06 07:41 51.27306 6.14423 36888 ft 549 kts 72°
2026-05-06 07:41 51.29918 6.25803 36883 ft 549 kts 72°
2026-05-06 07:42 51.32549 6.37315 36886 ft 550 kts 72°
2026-05-06 07:42 51.35171 6.48766 36890 ft 550 kts 72°
2026-05-06 07:43 51.37796 6.60235 36893 ft 551 kts 72°
2026-05-06 07:43 51.40440 6.71791 36889 ft 551 kts 72°
2026-05-06 07:44 51.43045 6.83234 36892 ft 552 kts 72°
2026-05-06 07:44 51.45668 6.94774 36893 ft 552 kts 72°
2026-05-06 07:45 51.48299 7.06367 36896 ft 553 kts 72°
2026-05-06 07:45 51.50905 7.17929 36900 ft 553 kts 72°
2026-05-06 07:46 51.53505 7.29490 36900 ft 553 kts 72°
2026-05-06 07:46 51.56095 7.41068 36902 ft 552 kts 72°
2026-05-06 07:47 51.58682 7.52642 36905 ft 552 kts 72°
2026-05-06 07:47 51.61262 7.64278 36906 ft 552 kts 72°
2026-05-06 07:48 51.63819 7.75866 36910 ft 552 kts 73°
2026-05-06 07:48 51.66387 7.87456 36912 ft 551 kts 73°
2026-05-06 07:49 51.68947 7.99041 36916 ft 551 kts 72°
2026-05-06 07:49 51.71495 8.10695 36914 ft 551 kts 72°
2026-05-06 07:50 51.74031 8.22385 36914 ft 551 kts 72°
2026-05-06 07:50 51.76551 8.33995 36914 ft 551 kts 72°
2026-05-06 07:51 51.79076 8.45647 36915 ft 551 kts 73°
2026-05-06 07:51 51.81582 8.57264 36915 ft 551 kts 72°
2026-05-06 07:52 51.84095 8.68916 36913 ft 550 kts 73°
2026-05-06 07:52 51.86615 8.80554 36916 ft 550 kts 73°
2026-05-06 07:53 51.89114 8.92212 36919 ft 550 kts 73°
2026-05-06 07:53 51.91633 9.03961 36928 ft 550 kts 73°
2026-05-06 07:54 51.94119 9.15596 36928 ft 550 kts 73°
2026-05-06 07:54 51.96593 9.27277 36926 ft 550 kts 73°
2026-05-06 07:55 51.99062 9.39002 36932 ft 548 kts 73°
2026-05-06 07:55 52.01504 9.50648 36922 ft 548 kts 73°
2026-05-06 07:56 52.03938 9.62366 36928 ft 548 kts 72°
2026-05-06 07:56 52.06356 9.74030 36928 ft 547 kts 73°
2026-05-06 07:57 52.08764 9.85681 36928 ft 546 kts 73°
2026-05-06 07:57 52.11167 9.97405 36923 ft 545 kts 73°
2026-05-06 07:58 52.13543 10.09029 36916 ft 546 kts 73°
2026-05-06 07:58 52.15921 10.20780 36921 ft 545 kts 73°
2026-05-06 07:59 52.18277 10.32532 36927 ft 545 kts 73°
2026-05-06 07:59 52.20600 10.44252 36933 ft 545 kts 73°
2026-05-06 08:00 52.22887 10.55893 36942 ft 544 kts 73°
2026-05-06 08:00 52.25193 10.67689 36944 ft 544 kts 73°
2026-05-06 08:01 52.27467 10.79369 36955 ft 544 kts 73°
2026-05-06 08:01 52.29739 10.91160 36961 ft 543 kts 73°
2026-05-06 08:02 52.31980 11.02933 36969 ft 543 kts 73°
2026-05-06 08:02 52.34196 11.14683 36971 ft 542 kts 73°
2026-05-06 08:03 52.36385 11.26364 36982 ft 541 kts 73°
2026-05-06 08:03 52.38574 11.38093 36985 ft 540 kts 73°
2026-05-06 08:04 52.40752 11.49804 36987 ft 539 kts 73°
2026-05-06 08:04 52.42920 11.61546 36991 ft 537 kts 73°
2026-05-06 08:05 52.45061 11.73210 37001 ft 535 kts 74°
2026-05-06 08:05 52.47188 11.84874 37003 ft 535 kts 73°
2026-05-06 08:06 52.49301 11.96492 37006 ft 533 kts 74°
2026-05-06 08:06 52.51409 12.08102 37010 ft 532 kts 73°
2026-05-06 08:07 52.53500 12.19772 37015 ft 532 kts 74°
2026-05-06 08:07 52.55563 12.31361 37014 ft 532 kts 74°
2026-05-06 08:08 52.57633 12.43017 37015 ft 531 kts 73°
2026-05-06 08:08 52.59689 12.54675 37015 ft 531 kts 73°
2026-05-06 08:09 52.61728 12.66251 37016 ft 531 kts 74°
2026-05-06 08:09 52.63783 12.77904 37016 ft 531 kts 74°
2026-05-06 08:10 52.65820 12.89521 37016 ft 531 kts 74°
2026-05-06 08:10 52.67860 13.01237 37016 ft 530 kts 74°
2026-05-06 08:11 52.69870 13.12867 37023 ft 530 kts 74°
2026-05-06 08:11 52.71856 13.24472 37020 ft 529 kts 74°
2026-05-06 08:12 52.73840 13.36167 37013 ft 528 kts 74°
2026-05-06 08:12 52.75808 13.47801 37019 ft 527 kts 74°
2026-05-06 08:13 52.77741 13.59413 37015 ft 527 kts 74°
2026-05-06 08:13 52.79670 13.71089 37005 ft 526 kts 75°
2026-05-06 08:14 52.81582 13.82682 37008 ft 525 kts 75°
2026-05-06 08:14 52.83477 13.94261 37355 ft 524 kts 74°
2026-05-06 08:15 52.84415 14.00053 37130 ft 522 kts 75°
2026-05-06 08:15 52.85360 14.05870 37037 ft 523 kts 74°
2026-05-06 08:15 52.87216 14.17447 37000 ft 523 kts 74°
2026-05-06 08:16 52.89051 14.29035 36999 ft 523 kts 74°
2026-05-06 08:16 52.90879 14.40644 36999 ft 524 kts 74°
2026-05-06 08:17 52.92706 14.52287 37004 ft 524 kts 74°
2026-05-06 08:17 52.94497 14.63907 37005 ft 523 kts 74°
2026-05-06 08:18 52.96284 14.75572 37008 ft 524 kts 75°
2026-05-06 08:18 52.98061 14.87307 37011 ft 524 kts 75°
2026-05-06 08:19 52.99807 14.98945 37012 ft 524 kts 75°
2026-05-06 08:19 53.01559 15.10692 37012 ft 525 kts 75°
2026-05-06 08:20 53.03298 15.22444 37013 ft 525 kts 74°
2026-05-06 08:20 53.05009 15.34161 37015 ft 523 kts 75°
2026-05-06 08:21 53.06709 15.45960 37014 ft 523 kts 75°
2026-05-06 08:21 53.08387 15.57676 37013 ft 524 kts 75°
2026-05-06 08:22 53.10064 15.69488 37011 ft 523 kts 75°
2026-05-06 08:22 53.11720 15.81179 37012 ft 522 kts 75°
2026-05-06 08:23 53.13373 15.92981 37013 ft 522 kts 75°
2026-05-06 08:23 53.15020 16.04895 37014 ft 521 kts 75°